Wetterdaten: Montag, 16.12.2013
Datum Zeit Temp. Aussen +5cm Feuchte Auss Luftdruck Regen Sonnenschein Regendauer UV Solar Windben
16.12.2013 00:00 4,6 C 2,8 C 83 % 1025,2 hPa 0,0 l/m 0 min 0 min 0,0 UV-I 0 W/m 12,9 km/h (3 Bft)
16.12.2013 00:02 4,6 C 2,8 C 83 % 1025,3 hPa 0,0 l/m 0 min 0 min 0,0 UV-I 0 W/m 10,3 km/h (2 Bft)
16.12.2013 00:06 4,5 C 2,8 C 83 % 1025,3 hPa 0,0 l/m 0 min 0 min 0,0 UV-I 0 W/m 12,9 km/h (3 Bft)
16.12.2013 00:08 4,5 C 2,8 C 83 % 1025,2 hPa 0,0 l/m 0 min 0 min 0,0 UV-I 0 W/m 7,7 km/h (2 Bft)
16.12.2013 00:10 4,5 C 2,8 C 83 % 1025,2 hPa 0,0 l/m 0 min 0 min 0,0 UV-I 0 W/m 15,4 km/h (3 Bft)
16.12.2013 00:12 4,5 C 2,8 C 83 % 1025,1 hPa 0,0 l/m 0 min 0 min 0,0 UV-I 0 W/m 12,9 km/h (3 Bft)
16.12.2013 00:14 4,5 C 2,8 C 84 % 1025,1 hPa 0,0 l/m 0 min 0 min 0,0 UV-I 0 W/m 23,2 km/h (4 Bft)
16.12.2013 00:16 4,5 C 2,8 C 84 % 1025,2 hPa 0,0 l/m 0 min 0 min 0,0 UV-I 0 W/m 20,6 km/h (4 Bft)
16.12.2013 00:18 4,4 C 2,8 C 84 % 1025,2 hPa 0,0 l/m 0 min 0 min 0,0 UV-I 0 W/m 12,9 km/h (3 Bft)
16.12.2013 00:20 4,4 C 2,8 C 84 % 1025,2 hPa 0,0 l/m 0 min 0 min 0,0 UV-I 0 W/m 12,9 km/h (3 Bft)
16.12.2013 00:22 4,4 C 2,8 C 84 % 1025,1 hPa 0,0 l/m 0 min 0 min 0,0 UV-I 0 W/m 12,9 km/h (3 Bft)
16.12.2013 00:24 4,4 C 2,8 C 84 % 1025,1 hPa 0,0 l/m 0 min 0 min 0,0 UV-I 0 W/m 12,9 km/h (3 Bft)
16.12.2013 00:26 4,4 C 2,8 C 84 % 1025,1 hPa 0,0 l/m 0 min 0 min 0,0 UV-I 0 W/m 15,4 km/h (3 Bft)
16.12.2013 00:28 4,4 C 2,8 C 84 % 1025,1 hPa 0,0 l/m 0 min 0 min 0,0 UV-I 0 W/m 12,9 km/h (3 Bft)
16.12.2013 00:30 4,4 C 2,8 C 84 % 1025,0 hPa 0,0 l/m 0 min 0 min 0,0 UV-I 0 W/m 12,9 km/h (3 Bft)
16.12.2013 00:32 4,4 C 2,8 C 84 % 1025,0 hPa 0,0 l/m 0 min 0 min 0,0 UV-I 0 W/m 12,9 km/h (3 Bft)
16.12.2013 00:34 4,4 C 2,8 C 84 % 1024,9 hPa 0,0 l/m 0 min 0 min 0,0 UV-I 0 W/m 7,7 km/h (2 Bft)
16.12.2013 00:36 4,4 C 2,8 C 84 % 1025,0 hPa 0,0 l/m 0 min 0 min 0,0 UV-I 0 W/m 12,9 km/h (3 Bft)
16.12.2013 00:38 4,3 C 2,8 C 84 % 1024,9 hPa 0,0 l/m 0 min 0 min 0,0 UV-I 0 W/m 15,4 km/h (3 Bft)
16.12.2013 00:40 4,3 C 2,8 C 84 % 1025,0 hPa 0,0 l/m 0 min 0 min 0,0 UV-I 0 W/m 5,1 km/h (1 Bft)
16.12.2013 00:42 4,3 C 2,8 C 84 % 1024,9 hPa 0,0 l/m 0 min 0 min 0,0 UV-I 0 W/m 18,0 km/h (3 Bft)
16.12.2013 00:44 4,3 C 2,8 C 84 % 1024,9 hPa 0,0 l/m 0 min 0 min 0,0 UV-I 0 W/m 18,0 km/h (3 Bft)
16.12.2013 00:46 4,3 C 2,8 C 84 % 1024,9 hPa 0,0 l/m 0 min 0 min 0,0 UV-I 0 W/m 10,3 km/h (2 Bft)
16.12.2013 00:48 4,3 C 2,8 C 84 % 1024,9 hPa 0,0 l/m 0 min 0 min 0,0 UV-I 0 W/m 10,3 km/h (2 Bft)
16.12.2013 00:50 4,3 C 2,8 C 84 % 1025,0 hPa 0,0 l/m 0 min 0 min 0,0 UV-I 0 W/m 7,7 km/h (2 Bft)
16.12.2013 00:52 4,3 C 2,8 C 84 % 1024,9 hPa 0,0 l/m 0 min 0 min 0,0 UV-I 0 W/m 2,6 km/h (1 Bft)
16.12.2013 00:54 4,3 C 2,8 C 84 % 1025,0 hPa 0,0 l/m 0 min 0 min 0,0 UV-I 0 W/m 12,9 km/h (3 Bft)
16.12.2013 00:56 4,3 C 2,8 C 84 % 1025,0 hPa 0,0 l/m 0 min 0 min 0,0 UV-I 0 W/m 7,7 km/h (2 Bft)
16.12.2013 00:58 4,2 C 2,8 C 84 % 1025,0 hPa 0,0 l/m 0 min 0 min 0,0 UV-I 0 W/m 7,7 km/h (2 Bft)
16.12.2013 01:00 4,2 C 2,8 C 84 % 1025,0 hPa 0,0 l/m 0 min 0 min 0,0 UV-I 0 W/m 10,3 km/h (2 Bft)
16.12.2013 01:02 4,2 C 2,8 C 84 % 1024,9 hPa 0,0 l/m 0 min 0 min 0,0 UV-I 0 W/m 10,3 km/h (2 Bft)
16.12.2013 01:04 4,2 C 2,8 C 84 % 1025,1 hPa 0,0 l/m 0 min 0 min 0,0 UV-I 0 W/m 10,3 km/h (2 Bft)
16.12.2013 01:06 4,2 C 2,8 C 84 % 1025,1 hPa 0,0 l/m 0 min 0 min 0,0 UV-I 0 W/m 18,0 km/h (3 Bft)
16.12.2013 01:08 4,2 C 2,8 C 85 % 1025,0 hPa 0,0 l/m 0 min 0 min 0,0 UV-I 0 W/m 7,7 km/h (2 Bft)
16.12.2013 01:10 4,2 C 2,8 C 85 % 1025,1 hPa 0,0 l/m 0 min 0 min 0,0 UV-I 0 W/m 0,0 km/h (0 Bft)
16.12.2013 01:12 4,2 C 2,8 C 85 % 1025,0 hPa 0,0 l/m 0 min 0 min 0,0 UV-I 0 W/m 12,9 km/h (3 Bft)
16.12.2013 01:14 4,2 C 2,8 C 85 % 1025,1 hPa 0,0 l/m 0 min 0 min 0,0 UV-I 0 W/m 12,9 km/h (3 Bft)
16.12.2013 01:16 4,2 C 2,2 C 85 % 1025,0 hPa 0,0 l/m 0 min 0 min 0,0 UV-I 0 W/m 10,3 km/h (2 Bft)
16.12.2013 01:18 4,2 C 2,8 C 85 % 1025,0 hPa 0,0 l/m 0 min 0 min 0,0 UV-I 0 W/m 12,9 km/h (3 Bft)
16.12.2013 01:20 4,2 C 2,8 C 85 % 1025,0 hPa 0,0 l/m 0 min 0 min 0,0 UV-I 0 W/m 10,3 km/h (2 Bft)
16.12.2013 01:22 4,2 C 2,8 C 85 % 1025,0 hPa 0,0 l/m 0 min 0 min 0,0 UV-I 0 W/m 10,3 km/h (2 Bft)
16.12.2013 01:24 4,2 C 2,8 C 85 % 1025,0 hPa 0,0 l/m 0 min 0 min 0,0 UV-I 0 W/m 10,3 km/h (2 Bft)
16.12.2013 01:26 4,2 C 2,8 C 85 % 1025,1 hPa 0,0 l/m 0 min 0 min 0,0 UV-I 0 W/m 10,3 km/h (2 Bft)
16.12.2013 01:28 4,2 C 2,8 C 85 % 1025,1 hPa 0,0 l/m 0 min 0 min 0,0 UV-I 0 W/m 10,3 km/h (2 Bft)
16.12.2013 01:30 4,2 C 2,8 C 85 % 1025,0 hPa 0,0 l/m 0 min 0 min 0,0 UV-I 0 W/m 15,4 km/h (3 Bft)
16.12.2013 01:32 4,2 C 2,8 C 85 % 1025,1 hPa 0,0 l/m 0 min 0 min 0,0 UV-I 0 W/m 12,9 km/h (3 Bft)
16.12.2013 01:34 4,2 C 2,8 C 85 % 1025,1 hPa 0,0 l/m 0 min 0 min 0,0 UV-I 0 W/m 15,4 km/h (3 Bft)
16.12.2013 01:36 4,2 C 2,8 C 85 % 1025,2 hPa 0,0 l/m 0 min 0 min 0,0 UV-I 0 W/m 5,1 km/h (1 Bft)
16.12.2013 01:38 4,2 C 2,8 C 85 % 1025,1 hPa 0,0 l/m 0 min 0 min 0,0 UV-I 0 W/m 18,0 km/h (3 Bft)
16.12.2013 01:40 4,2 C 2,8 C 85 % 1025,1 hPa 0,0 l/m 0 min 0 min 0,0 UV-I 0 W/m 18,0 km/h (3 Bft)
16.12.2013 01:42 4,2 C 2,8 C 85 % 1025,1 hPa 0,0 l/m 0 min 0 min 0,0 UV-I 0 W/m 7,7 km/h (2 Bft)
16.12.2013 01:44 4,3 C 2,8 C 85 % 1025,0 hPa 0,0 l/m 0 min 0 min 0,0 UV-I 0 W/m 10,3 km/h (2 Bft)
16.12.2013 01:46 4,3 C 2,8 C 85 % 1025,1 hPa 0,0 l/m 0 min 0 min 0,0 UV-I 0 W/m 10,3 km/h (2 Bft)
16.12.2013 01:48 4,3 C 2,8 C 85 % 1025,0 hPa 0,0 l/m 0 min 0 min 0,0 UV-I 0 W/m 15,4 km/h (3 Bft)
16.12.2013 01:50 4,3 C 2,8 C 85 % 1025,0 hPa 0,0 l/m 0 min 0 min 0,0 UV-I 0 W/m 12,9 km/h (3 Bft)
16.12.2013 01:52 4,3 C 2,8 C 85 % 1025,1 hPa 0,0 l/m 0 min 0 min 0,0 UV-I 0 W/m 12,9 km/h (3 Bft)
16.12.2013 01:54 4,3 C 2,8 C 85 % 1025,2 hPa 0,0 l/m 0 min 0 min 0,0 UV-I 0 W/m 10,3 km/h (2 Bft)
16.12.2013 01:56 4,3 C 2,8 C 85 % 1025,1 hPa 0,0 l/m 0 min 0 min 0,0 UV-I 0 W/m 10,3 km/h (2 Bft)
16.12.2013 01:58 4,3 C 2,8 C 85 % 1025,1 hPa 0,0 l/m 0 min 0 min 0,0 UV-I 0 W/m 15,4 km/h (3 Bft)
16.12.2013 02:00 4,3 C 2,8 C 85 % 1025,0 hPa 0,0 l/m 0 min 0 min 0,0 UV-I 0 W/m 12,9 km/h (3 Bft)
16.12.2013 02:02 4,3 C 2,8 C 85 % 1025,0 hPa 0,0 l/m 0 min 0 min 0,0 UV-I 0 W/m 15,4 km/h (3 Bft)
16.12.2013 02:04 4,3 C 2,8 C 85 % 1025,1 hPa 0,0 l/m 0 min 0 min 0,0 UV-I 0 W/m 10,3 km/h (2 Bft)
16.12.2013 02:06 4,3 C 2,8 C 85 % 1025,0 hPa 0,0 l/m 0 min 0 min 0,0 UV-I 0 W/m 7,7 km/h (2 Bft)
16.12.2013 02:08 4,3 C 2,8 C 85 % 1025,0 hPa 0,0 l/m 0 min 0 min 0,0 UV-I 0 W/m 12,9 km/h (3 Bft)
16.12.2013 02:10 4,3 C 2,8 C 85 % 1025,0 hPa 0,0 l/m 0 min 0 min 0,0 UV-I 0 W/m 12,9 km/h (3 Bft)
16.12.2013 02:12 4,3 C 2,8 C 85 % 1025,0 hPa 0,0 l/m 0 min 0 min 0,0 UV-I 0 W/m 10,3 km/h (2 Bft)
16.12.2013 02:14 4,3 C 2,8 C 85 % 1025,0 hPa 0,0 l/m 0 min 0 min 0,0 UV-I 0 W/m 18,0 km/h (3 Bft)
16.12.2013 02:16 4,3 C 2,8 C 85 % 1025,0 hPa 0,0 l/m 0 min 0 min 0,0 UV-I 0 W/m 10,3 km/h (2 Bft)
16.12.2013 02:18 4,3 C 2,8 C 85 % 1025,0 hPa 0,0 l/m 0 min 0 min 0,0 UV-I 0 W/m 10,3 km/h (2 Bft)
16.12.2013 02:20 4,3 C 2,8 C 85 % 1024,9 hPa 0,0 l/m 0 min 0 min 0,0 UV-I 0 W/m 10,3 km/h (2 Bft)
16.12.2013 02:22 4,3 C 2,8 C 84 % 1024,8 hPa 0,0 l/m 0 min 0 min 0,0 UV-I 0 W/m 7,7 km/h (2 Bft)
16.12.2013 02:24 4,3 C 2,2 C 84 % 1024,7 hPa 0,0 l/m 0 min 0 min 0,0 UV-I 0 W/m 12,9 km/h (3 Bft)
16.12.2013 02:26 4,2 C 2,2 C 84 % 1024,8 hPa 0,0 l/m 0 min 0 min 0,0 UV-I 0 W/m 12,9 km/h (3 Bft)
16.12.2013 02:28 4,2 C 2,2 C 84 % 1024,7 hPa 0,0 l/m 0 min 0 min 0,0 UV-I 0 W/m 15,4 km/h (3 Bft)
16.12.2013 02:30 4,2 C 2,2 C 84 % 1024,7 hPa 0,0 l/m 0 min 0 min 0,0 UV-I 0 W/m 10,3 km/h (2 Bft)
16.12.2013 02:32 4,2 C 2,2 C 85 % 1024,7 hPa 0,0 l/m 0 min 0 min 0,0 UV-I 0 W/m 15,4 km/h (3 Bft)
16.12.2013 02:34 4,1 C 2,2 C 89 % 1024,8 hPa 0,0 l/m 0 min 0 min 0,0 UV-I 0 W/m 18,0 km/h (3 Bft)
16.12.2013 02:36 4,1 C 2,2 C 84 % 1024,8 hPa 0,0 l/m 0 min 0 min 0,0 UV-I 0 W/m 15,4 km/h (3 Bft)
16.12.2013 02:38 4,1 C 2,2 C 85 % 1024,8 hPa 0,0 l/m 0 min 0 min 0,0 UV-I 0 W/m 12,9 km/h (3 Bft)
16.12.2013 02:40 4,1 C 2,2 C 85 % 1024,8 hPa 0,0 l/m 0 min 0 min 0,0 UV-I 0 W/m 15,4 km/h (3 Bft)
16.12.2013 02:42 4,0 C 2,2 C 85 % 1024,7 hPa 0,0 l/m 0 min 0 min 0,0 UV-I 0 W/m 7,7 km/h (2 Bft)
16.12.2013 02:44 4,0 C 2,2 C 85 % 1024,7 hPa 0,0 l/m 0 min 0 min 0,0 UV-I 0 W/m 15,4 km/h (3 Bft)
16.12.2013 02:46 3,9 C 2,2 C 85 % 1024,7 hPa 0,0 l/m 0 min 0 min 0,0 UV-I 0 W/m 12,9 km/h (3 Bft)
16.12.2013 02:48 3,9 C 2,2 C 85 % 1024,7 hPa 0,0 l/m 0 min 0 min 0,0 UV-I 0 W/m 15,4 km/h (3 Bft)
16.12.2013 02:50 3,9 C 2,2 C 85 % 1024,7 hPa 0,0 l/m 0 min 0 min 0,0 UV-I 0 W/m 10,3 km/h (2 Bft)
16.12.2013 02:52 3,9 C 2,2 C 85 % 1024,8 hPa 0,0 l/m 0 min 0 min 0,0 UV-I 0 W/m 12,9 km/h (3 Bft)
16.12.2013 02:54 3,9 C 2,2 C 85 % 1024,7 hPa 0,0 l/m 0 min 0 min 0,0 UV-I 0 W/m 15,4 km/h (3 Bft)
16.12.2013 02:56 3,9 C 2,2 C 85 % 1024,7 hPa 0,0 l/m 0 min 0 min 0,0 UV-I 0 W/m 20,6 km/h (4 Bft)
16.12.2013 02:58 3,8 C 2,2 C 85 % 1024,7 hPa 0,0 l/m 0 min 0 min 0,0 UV-I 0 W/m 10,3 km/h (2 Bft)
16.12.2013 03:00 3,8 C 2,2 C 85 % 1024,7 hPa 0,0 l/m 0 min 0 min 0,0 UV-I 0 W/m 7,7 km/h (2 Bft)
16.12.2013 03:02 3,8 C 2,2 C 85 % 1024,7 hPa 0,0 l/m 0 min 0 min 0,0 UV-I 0 W/m 12,9 km/h (3 Bft)
16.12.2013 03:04 3,8 C 2,2 C 85 % 1024,7 hPa 0,0 l/m 0 min 0 min 0,0 UV-I 0 W/m 15,4 km/h (3 Bft)
16.12.2013 03:06 3,8 C 2,2 C 85 % 1024,7 hPa 0,0 l/m 0 min 0 min 0,0 UV-I 0 W/m 23,2 km/h (4 Bft)
16.12.2013 03:08 3,8 C 2,2 C 85 % 1024,7 hPa 0,0 l/m 0 min 0 min 0,0 UV-I 0 W/m 12,9 km/h (3 Bft)
16.12.2013 03:10 3,8 C 2,2 C 85 % 1024,7 hPa 0,0 l/m 0 min 0 min 0,0 UV-I 0 W/m 18,0 km/h (3 Bft)
16.12.2013 03:12 3,8 C 2,2 C 85 % 1024,7 hPa 0,0 l/m 0 min 0 min 0,0 UV-I 0 W/m 18,0 km/h (3 Bft)
16.12.2013 03:14 3,8 C 2,2 C 85 % 1024,7 hPa 0,0 l/m 0 min 0 min 0,0 UV-I 0 W/m 18,0 km/h (3 Bft)
16.12.2013 03:16 3,7 C 2,2 C 85 % 1024,7 hPa 0,0 l/m 0 min 0 min 0,0 UV-I 0 W/m 15,4 km/h (3 Bft)
16.12.2013 03:18 3,7 C 2,2 C 85 % 1024,7 hPa 0,0 l/m 0 min 0 min 0,0 UV-I 0 W/m 15,4 km/h (3 Bft)
16.12.2013 03:20 3,7 C 2,2 C 85 % 1024,7 hPa 0,0 l/m 0 min 0 min 0,0 UV-I 0 W/m 12,9 km/h (3 Bft)
16.12.2013 03:22 3,7 C 2,2 C 85 % 1024,7 hPa 0,0 l/m 0 min 0 min 0,0 UV-I 0 W/m 12,9 km/h (3 Bft)
16.12.2013 03:24 3,7 C 2,2 C 85 % 1024,9 hPa 0,0 l/m 0 min 0 min 0,0 UV-I 0 W/m 15,4 km/h (3 Bft)
16.12.2013 03:26 3,7 C 2,2 C 85 % 1024,9 hPa 0,0 l/m 0 min 0 min 0,0 UV-I 0 W/m 15,4 km/h (3 Bft)
16.12.2013 03:28 3,7 C 2,2 C 85 % 1024,9 hPa 0,0 l/m 0 min 0 min 0,0 UV-I 0 W/m 7,7 km/h (2 Bft)
16.12.2013 03:30 3,7 C 2,2 C 85 % 1024,9 hPa 0,0 l/m 0 min 0 min 0,0 UV-I 0 W/m 7,7 km/h (2 Bft)
16.12.2013 03:32 3,7 C 1,7 C 85 % 1024,9 hPa 0,0 l/m 0 min 0 min 0,0 UV-I 0 W/m 10,3 km/h (2 Bft)
16.12.2013 03:34 3,7 C 1,7 C 85 % 1024,9 hPa 0,0 l/m 0 min 0 min 0,0 UV-I 0 W/m 12,9 km/h (3 Bft)
16.12.2013 03:36 3,7 C 1,7 C 85 % 1024,9 hPa 0,0 l/m 0 min 0 min 0,0 UV-I 0 W/m 10,3 km/h (2 Bft)
16.12.2013 03:38 3,7 C 1,7 C 85 % 1024,8 hPa 0,0 l/m 0 min 0 min 0,0 UV-I 0 W/m 12,9 km/h (3 Bft)
16.12.2013 03:40 3,6 C 1,7 C 85 % 1024,9 hPa 0,0 l/m 0 min 0 min 0,0 UV-I 0 W/m 12,9 km/h (3 Bft)
16.12.2013 03:42 3,6 C 1,7 C 85 % 1024,9 hPa 0,0 l/m 0 min 0 min 0,0 UV-I 0 W/m 10,3 km/h (2 Bft)
16.12.2013 03:44 3,6 C 1,7 C 85 % 1024,8 hPa 0,0 l/m 0 min 0 min 0,0 UV-I 0 W/m 18,0 km/h (3 Bft)
16.12.2013 03:46 3,6 C 1,7 C 85 % 1024,7 hPa 0,0 l/m 0 min 0 min 0,0 UV-I 0 W/m 18,0 km/h (3 Bft)
16.12.2013 03:48 3,6 C 1,7 C 85 % 1024,7 hPa 0,0 l/m 0 min 0 min 0,0 UV-I 0 W/m 18,0 km/h (3 Bft)
16.12.2013 03:50 3,6 C 1,7 C 85 % 1024,7 hPa 0,0 l/m 0 min 0 min 0,0 UV-I 0 W/m 20,6 km/h (4 Bft)
16.12.2013 03:52 3,6 C 2,2 C 85 % 1024,7 hPa 0,0 l/m 0 min 0 min 0,0 UV-I 0 W/m 18,0 km/h (3 Bft)
16.12.2013 03:54 3,5 C 1,7 C 85 % 1024,7 hPa 0,0 l/m 0 min 0 min 0,0 UV-I 0 W/m 18,0 km/h (3 Bft)
16.12.2013 03:56 3,6 C 1,7 C 85 % 1024,8 hPa 0,0 l/m 0 min 0 min 0,0 UV-I 0 W/m 10,3 km/h (2 Bft)
16.12.2013 03:58 3,5 C 1,7 C 86 % 1024,9 hPa 0,0 l/m 0 min 0 min 0,0 UV-I 0 W/m 15,4 km/h (3 Bft)
16.12.2013 04:00 3,5 C 1,7 C 86 % 1024,8 hPa 0,0 l/m 0 min 0 min 0,0 UV-I 0 W/m 10,3 km/h (2 Bft)
16.12.2013 04:02 3,5 C 1,7 C 86 % 1024,7 hPa 0,0 l/m 0 min 0 min 0,0 UV-I 0 W/m 15,4 km/h (3 Bft)
16.12.2013 04:04 3,5 C 1,7 C 86 % 1024,7 hPa 0,0 l/m 0 min 0 min 0,0 UV-I 0 W/m 15,4 km/h (3 Bft)
16.12.2013 04:06 3,5 C 1,7 C 86 % 1024,7 hPa 0,0 l/m 0 min 0 min 0,0 UV-I 0 W/m 12,9 km/h (3 Bft)
16.12.2013 04:08 3,5 C 1,7 C 86 % 1024,7 hPa 0,0 l/m 0 min 0 min 0,0 UV-I 0 W/m 12,9 km/h (3 Bft)
16.12.2013 04:10 3,4 C 1,7 C 86 % 1024,5 hPa 0,0 l/m 0 min 0 min 0,0 UV-I 0 W/m 12,9 km/h (3 Bft)
16.12.2013 04:12 3,4 C 1,7 C 86 % 1024,5 hPa 0,0 l/m 0 min 0 min 0,0 UV-I 0 W/m 12,9 km/h (3 Bft)
16.12.2013 04:14 3,4 C 1,7 C 86 % 1024,6 hPa 0,0 l/m 0 min 0 min 0,0 UV-I 0 W/m 12,9 km/h (3 Bft)
16.12.2013 04:16 3,4 C 1,7 C 86 % 1024,6 hPa 0,0 l/m 0 min 0 min 0,0 UV-I 0 W/m 7,7 km/h (2 Bft)
16.12.2013 04:18 3,4 C 1,7 C 86 % 1024,6 hPa 0,0 l/m 0 min 0 min 0,0 UV-I 0 W/m 10,3 km/h (2 Bft)
16.12.2013 04:20 3,4 C 1,7 C 86 % 1024,6 hPa 0,0 l/m 0 min 0 min 0,0 UV-I 0 W/m 10,3 km/h (2 Bft)
16.12.2013 04:22 3,3 C 1,7 C 86 % 1024,6 hPa 0,0 l/m 0 min 0 min 0,0 UV-I 0 W/m 7,7 km/h (2 Bft)
16.12.2013 04:24 3,3 C 1,7 C 86 % 1024,6 hPa 0,0 l/m 0 min 0 min 0,0 UV-I 0 W/m 12,9 km/h (3 Bft)
16.12.2013 04:26 3,3 C 1,7 C 86 % 1024,6 hPa 0,0 l/m 0 min 0 min 0,0 UV-I 0 W/m 10,3 km/h (2 Bft)
16.12.2013 04:28 3,3 C 1,7 C 86 % 1024,6 hPa 0,0 l/m 0 min 0 min 0,0 UV-I 0 W/m 10,3 km/h (2 Bft)
16.12.2013 04:30 3,3 C 1,7 C 86 % 1024,6 hPa 0,0 l/m 0 min 0 min 0,0 UV-I 0 W/m 5,1 km/h (1 Bft)
16.12.2013 04:32 3,3 C 1,7 C 86 % 1024,6 hPa 0,0 l/m 0 min 0 min 0,0 UV-I 0 W/m 10,3 km/h (2 Bft)
16.12.2013 04:34 3,2 C 1,7 C 86 % 1024,5 hPa 0,0 l/m 0 min 0 min 0,0 UV-I 0 W/m 12,9 km/h (3 Bft)
16.12.2013 04:36 3,2 C 1,7 C 86 % 1024,5 hPa 0,0 l/m 0 min 0 min 0,0 UV-I 0 W/m 18,0 km/h (3 Bft)
16.12.2013 04:38 3,2 C 1,7 C 86 % 1024,5 hPa 0,0 l/m 0 min 0 min 0,0 UV-I 0 W/m 5,1 km/h (1 Bft)
16.12.2013 04:40 3,2 C 1,7 C 86 % 1024,4 hPa 0,0 l/m 0 min 0 min 0,0 UV-I 0 W/m 12,9 km/h (3 Bft)
16.12.2013 04:42 3,2 C 1,7 C 87 % 1024,5 hPa 0,0 l/m 0 min 0 min 0,0 UV-I 0 W/m 7,7 km/h (2 Bft)
16.12.2013 04:44 3,2 C 1,7 C 87 % 1024,5 hPa 0,0 l/m 0 min 0 min 0,0 UV-I 0 W/m 7,7 km/h (2 Bft)
16.12.2013 04:46 3,1 C 1,1 C 87 % 1024,4 hPa 0,0 l/m 0 min 0 min 0,0 UV-I 0 W/m 15,4 km/h (3 Bft)
16.12.2013 04:48 3,1 C 1,1 C 87 % 1024,4 hPa 0,0 l/m 0 min 0 min 0,0 UV-I 0 W/m 10,3 km/h (2 Bft)
16.12.2013 04:50 3,1 C 1,1 C 87 % 1024,3 hPa 0,0 l/m 0 min 0 min 0,0 UV-I 0 W/m 7,7 km/h (2 Bft)
16.12.2013 04:52 3,1 C 1,1 C 87 % 1024,2 hPa 0,0 l/m 0 min 0 min 0,0 UV-I 0 W/m 12,9 km/h (3 Bft)
16.12.2013 04:54 3,1 C 1,1 C 87 % 1024,2 hPa 0,0 l/m 0 min 0 min 0,0 UV-I 0 W/m 12,9 km/h (3 Bft)
16.12.2013 04:56 3,1 C 1,1 C 87 % 1024,1 hPa 0,0 l/m 0 min 0 min 0,0 UV-I 0 W/m 15,4 km/h (3 Bft)
16.12.2013 04:58 3,0 C 1,1 C 87 % 1024,0 hPa 0,0 l/m 0 min 0 min 0,0 UV-I 0 W/m 18,0 km/h (3 Bft)
16.12.2013 05:00 3,0 C 1,1 C 87 % 1024,1 hPa 0,0 l/m 0 min 0 min 0,0 UV-I 0 W/m 5,1 km/h (1 Bft)
16.12.2013 05:02 3,0 C 1,1 C 87 % 1024,1 hPa 0,0 l/m 0 min 0 min 0,0 UV-I 0 W/m 12,9 km/h (3 Bft)
16.12.2013 05:04 2,9 C 1,1 C 87 % 1024,1 hPa 0,0 l/m 0 min 0 min 0,0 UV-I 0 W/m 10,3 km/h (2 Bft)
16.12.2013 05:06 2,9 C 1,1 C 87 % 1024,0 hPa 0,0 l/m 0 min 0 min 0,0 UV-I 0 W/m 10,3 km/h (2 Bft)
16.12.2013 05:08 2,9 C 1,1 C 87 % 1023,9 hPa 0,0 l/m 0 min 0 min 0,0 UV-I 0 W/m 10,3 km/h (2 Bft)
16.12.2013 05:10 2,9 C 1,1 C 87 % 1023,9 hPa 0,0 l/m 0 min 0 min 0,0 UV-I 0 W/m 12,9 km/h (3 Bft)
16.12.2013 05:12 2,9 C 1,1 C 87 % 1023,9 hPa 0,0 l/m 0 min 0 min 0,0 UV-I 0 W/m 12,9 km/h (3 Bft)
16.12.2013 05:14 2,9 C 1,1 C 87 % 1023,9 hPa 0,0 l/m 0 min 0 min 0,0 UV-I 0 W/m 12,9 km/h (3 Bft)
16.12.2013 05:16 2,9 C 1,7 C 87 % 1023,9 hPa 0,0 l/m 0 min 0 min 0,0 UV-I 0 W/m 12,9 km/h (3 Bft)
16.12.2013 05:18 2,9 C 1,7 C 87 % 1023,9 hPa 0,0 l/m 0 min 0 min 0,0 UV-I 0 W/m 12,9 km/h (3 Bft)
16.12.2013 05:20 2,9 C 1,7 C 88 % 1023,9 hPa 0,0 l/m 0 min 0 min 0,0 UV-I 0 W/m 12,9 km/h (3 Bft)
16.12.2013 05:22 2,9 C 1,7 C 88 % 1023,9 hPa 0,0 l/m 0 min 0 min 0,0 UV-I 0 W/m 15,4 km/h (3 Bft)
16.12.2013 05:24 2,9 C 1,7 C 88 % 1023,9 hPa 0,0 l/m 0 min 0 min 0,0 UV-I 0 W/m 10,3 km/h (2 Bft)
16.12.2013 05:26 2,9 C 1,1 C 88 % 1023,9 hPa 0,0 l/m 0 min 0 min 0,0 UV-I 0 W/m 10,3 km/h (2 Bft)
16.12.2013 05:28 2,9 C 1,1 C 88 % 1023,9 hPa 0,0 l/m 0 min 0 min 0,0 UV-I 0 W/m 12,9 km/h (3 Bft)
16.12.2013 05:30 2,9 C 1,1 C 88 % 1024,0 hPa 0,0 l/m 0 min 0 min 0,0 UV-I 0 W/m 12,9 km/h (3 Bft)
16.12.2013 05:32 2,9 C 1,1 C 88 % 1024,0 hPa 0,0 l/m 0 min 0 min 0,0 UV-I 0 W/m 12,9 km/h (3 Bft)
16.12.2013 05:34 2,9 C 1,1 C 88 % 1024,0 hPa 0,0 l/m 0 min 0 min 0,0 UV-I 0 W/m 10,3 km/h (2 Bft)
16.12.2013 05:36 2,9 C 1,1 C 88 % 1024,0 hPa 0,0 l/m 0 min 0 min 0,0 UV-I 0 W/m 7,7 km/h (2 Bft)
16.12.2013 05:38 2,9 C 1,1 C 88 % 1024,0 hPa 0,0 l/m 0 min 0 min 0,0 UV-I 0 W/m 7,7 km/h (2 Bft)
16.12.2013 05:40 2,9 C 1,1 C 88 % 1024,0 hPa 0,0 l/m 0 min 0 min 0,0 UV-I 0 W/m 7,7 km/h (2 Bft)
16.12.2013 05:42 2,9 C 1,1 C 88 % 1024,0 hPa 0,0 l/m 0 min 0 min 0,0 UV-I 0 W/m 10,3 km/h (2 Bft)
16.12.2013 05:44 2,8 C 1,1 C 88 % 1024,0 hPa 0,0 l/m 0 min 0 min 0,0 UV-I 0 W/m 7,7 km/h (2 Bft)
16.12.2013 05:46 2,8 C 1,1 C 88 % 1024,0 hPa 0,0 l/m 0 min 0 min 0,0 UV-I 0 W/m 10,3 km/h (2 Bft)
16.12.2013 05:48 2,8 C 1,1 C 88 % 1024,0 hPa 0,0 l/m 0 min 0 min 0,0 UV-I 0 W/m 2,6 km/h (1 Bft)
16.12.2013 05:50 2,8 C 1,1 C 88 % 1024,0 hPa 0,0 l/m 0 min 0 min 0,0 UV-I 0 W/m 2,6 km/h (1 Bft)
16.12.2013 05:52 2,8 C 1,1 C 88 % 1024,1 hPa 0,0 l/m 0 min 0 min 0,0 UV-I 0 W/m 2,6 km/h (1 Bft)
16.12.2013 05:54 2,8 C 1,1 C 88 % 1024,1 hPa 0,0 l/m 0 min 0 min 0,0 UV-I 0 W/m 7,7 km/h (2 Bft)
16.12.2013 05:56 2,8 C 1,1 C 88 % 1024,2 hPa 0,0 l/m 0 min 0 min 0,0 UV-I 0 W/m 7,7 km/h (2 Bft)
16.12.2013 05:58 2,8 C 1,1 C 88 % 1024,2 hPa 0,0 l/m 0 min 0 min 0,0 UV-I 0 W/m 5,1 km/h (1 Bft)
16.12.2013 06:00 2,8 C 1,1 C 88 % 1024,2 hPa 0,0 l/m 0 min 0 min 0,0 UV-I 0 W/m 7,7 km/h (2 Bft)
16.12.2013 06:02 2,8 C 1,1 C 88 % 1024,3 hPa 0,0 l/m 0 min 0 min 0,0 UV-I 0 W/m 7,7 km/h (2 Bft)
16.12.2013 06:04 2,7 C 1,1 C 88 % 1024,3 hPa 0,0 l/m 0 min 0 min 0,0 UV-I 0 W/m 5,1 km/h (1 Bft)
16.12.2013 06:06 2,7 C 1,1 C 88 % 1024,3 hPa 0,0 l/m 0 min 0 min 0,0 UV-I 0 W/m 7,7 km/h (2 Bft)
16.12.2013 06:08 2,7 C 1,1 C 88 % 1024,4 hPa 0,0 l/m 0 min 0 min 0,0 UV-I 0 W/m 10,3 km/h (2 Bft)
16.12.2013 06:10 2,7 C 1,1 C 88 % 1024,3 hPa 0,0 l/m 0 min 0 min 0,0 UV-I 0 W/m 7,7 km/h (2 Bft)
16.12.2013 06:12 2,7 C 1,1 C 88 % 1024,3 hPa 0,0 l/m 0 min 0 min 0,0 UV-I 0 W/m 10,3 km/h (2 Bft)
16.12.2013 06:14 2,7 C 1,1 C 89 % 1024,2 hPa 0,0 l/m 0 min 0 min 0,0 UV-I 0 W/m 7,7 km/h (2 Bft)
16.12.2013 06:16 2,7 C 1,1 C 89 % 1024,3 hPa 0,0 l/m 0 min 0 min 0,0 UV-I 0 W/m 12,9 km/h (3 Bft)
16.12.2013 06:18 2,7 C 1,1 C 89 % 1024,3 hPa 0,0 l/m 0 min 0 min 0,0 UV-I 0 W/m 12,9 km/h (3 Bft)
16.12.2013 06:20 2,7 C 1,1 C 89 % 1024,3 hPa 0,0 l/m 0 min 0 min 0,0 UV-I 0 W/m 10,3 km/h (2 Bft)
16.12.2013 06:22 2,7 C 1,1 C 89 % 1024,3 hPa 0,0 l/m 0 min 0 min 0,0 UV-I 0 W/m 12,9 km/h (3 Bft)
16.12.2013 06:24 2,7 C 1,1 C 89 % 1024,4 hPa 0,0 l/m 0 min 0 min 0,0 UV-I 0 W/m 10,3 km/h (2 Bft)
16.12.2013 06:26 2,7 C 1,1 C 89 % 1024,3 hPa 0,0 l/m 0 min 0 min 0,0 UV-I 0 W/m 7,7 km/h (2 Bft)
16.12.2013 06:28 2,7 C 1,1 C 89 % 1024,3 hPa 0,0 l/m 0 min 0 min 0,0 UV-I 0 W/m 2,6 km/h (1 Bft)
16.12.2013 06:30 2,7 C 1,1 C 89 % 1024,4 hPa 0,0 l/m 0 min 0 min 0,0 UV-I 0 W/m 0,0 km/h (0 Bft)
16.12.2013 06:32 2,7 C 1,1 C 89 % 1024,4 hPa 0,0 l/m 0 min 0 min 0,0 UV-I 0 W/m 7,7 km/h (2 Bft)
16.12.2013 06:34 2,6 C 1,1 C 89 % 1024,4 hPa 0,0 l/m 0 min 0 min 0,0 UV-I 0 W/m 10,3 km/h (2 Bft)
16.12.2013 06:36 2,6 C 1,1 C 89 % 1024,4 hPa 0,0 l/m 0 min 0 min 0,0 UV-I 0 W/m 10,3 km/h (2 Bft)
16.12.2013 06:38 2,7 C 1,1 C 89 % 1024,4 hPa 0,0 l/m 0 min 0 min 0,0 UV-I 0 W/m 7,7 km/h (2 Bft)
16.12.2013 06:40 2,6 C 1,1 C 89 % 1024,3 hPa 0,0 l/m 0 min 0 min 0,0 UV-I 0 W/m 10,3 km/h (2 Bft)
16.12.2013 06:42 2,6 C 1,1 C 89 % 1024,3 hPa 0,0 l/m 0 min 0 min 0,0 UV-I 0 W/m 12,9 km/h (3 Bft)
16.12.2013 06:44 2,6 C 1,1 C 89 % 1024,2 hPa 0,0 l/m 0 min 0 min 0,0 UV-I 0 W/m 10,3 km/h (2 Bft)
16.12.2013 06:46 2,6 C 1,1 C 89 % 1024,3 hPa 0,0 l/m 0 min 0 min 0,0 UV-I 0 W/m 2,6 km/h (1 Bft)
16.12.2013 06:48 2,6 C 1,1 C 89 % 1024,4 hPa 0,0 l/m 0 min 0 min 0,0 UV-I 0 W/m 5,1 km/h (1 Bft)
16.12.2013 06:50 2,6 C 1,1 C 89 % 1024,3 hPa 0,0 l/m 0 min 0 min 0,0 UV-I 0 W/m 7,7 km/h (2 Bft)
16.12.2013 06:52 2,6 C 0,6 C 89 % 1024,3 hPa 0,0 l/m 0 min 0 min 0,0 UV-I 0 W/m 10,3 km/h (2 Bft)
16.12.2013 06:54 2,6 C 0,6 C 89 % 1024,3 hPa 0,0 l/m 0 min 0 min 0,0 UV-I 0 W/m 5,1 km/h (1 Bft)
16.12.2013 06:56 2,6 C 0,6 C 89 % 1024,3 hPa 0,0 l/m 0 min 0 min 0,0 UV-I 0 W/m 7,7 km/h (2 Bft)
16.12.2013 06:58 2,6 C 0,6 C 89 % 1024,3 hPa 0,0 l/m 0 min 0 min 0,0 UV-I 0 W/m 7,7 km/h (2 Bft)
16.12.2013 07:00 2,6 C 1,1 C 89 % 1024,3 hPa 0,0 l/m 0 min 0 min 0,0 UV-I 0 W/m 12,9 km/h (3 Bft)
16.12.2013 07:02 2,6 C 0,6 C 89 % 1024,2 hPa 0,0 l/m 0 min 0 min 0,0 UV-I 0 W/m 7,7 km/h (2 Bft)
16.12.2013 07:04 2,6 C 0,6 C 89 % 1024,1 hPa 0,0 l/m 0 min 0 min 0,0 UV-I 0 W/m 7,7 km/h (2 Bft)
16.12.2013 07:06 2,6 C 0,6 C 89 % 1024,1 hPa 0,0 l/m 0 min 0 min 0,0 UV-I 0 W/m 0,0 km/h (0 Bft)
16.12.2013 07:08 2,6 C 0,6 C 90 % 1024,1 hPa 0,0 l/m 0 min 0 min 0,0 UV-I 0 W/m 0,0 km/h (0 Bft)
16.12.2013 07:10 2,6 C 0,6 C 90 % 1024,1 hPa 0,0 l/m 0 min 0 min 0,0 UV-I 0 W/m 0,0 km/h (0 Bft)
16.12.2013 07:12 2,5 C 0,6 C 90 % 1024,2 hPa 0,0 l/m 0 min 0 min 0,0 UV-I 0 W/m 0,0 km/h (0 Bft)
16.12.2013 07:14 2,5 C 0,6 C 90 % 1024,1 hPa 0,0 l/m 0 min 0 min 0,0 UV-I 0 W/m 2,6 km/h (1 Bft)
16.12.2013 07:16 2,5 C 0,6 C 90 % 1024,1 hPa 0,0 l/m 0 min 0 min 0,0 UV-I 0 W/m 0,0 km/h (0 Bft)
16.12.2013 07:18 2,5 C 0,6 C 90 % 1024,1 hPa 0,0 l/m 0 min 0 min 0,0 UV-I 0 W/m 5,1 km/h (1 Bft)
16.12.2013 07:20 2,5 C 0,6 C 90 % 1024,1 hPa 0,0 l/m 0 min 0 min 0,0 UV-I 0 W/m 10,3 km/h (2 Bft)
16.12.2013 07:22 2,4 C 0,6 C 90 % 1024,0 hPa 0,0 l/m 0 min 0 min 0,0 UV-I 0 W/m 12,9 km/h (3 Bft)
16.12.2013 07:24 2,4 C 0,6 C 90 % 1024,1 hPa 0,0 l/m 0 min 0 min 0,0 UV-I 0 W/m 5,1 km/h (1 Bft)
16.12.2013 07:26 2,4 C 0,6 C 90 % 1024,0 hPa 0,0 l/m 0 min 0 min 0,0 UV-I 0 W/m 12,9 km/h (3 Bft)
16.12.2013 07:28 2,4 C 1,1 C 90 % 1023,9 hPa 0,0 l/m 0 min 0 min 0,0 UV-I 0 W/m 10,3 km/h (2 Bft)
16.12.2013 07:30 2,4 C 0,6 C 90 % 1023,9 hPa 0,0 l/m 0 min 0 min 0,0 UV-I 0 W/m 7,7 km/h (2 Bft)
16.12.2013 07:32 2,4 C 1,1 C 90 % 1023,8 hPa 0,0 l/m 0 min 0 min 0,0 UV-I 0 W/m 12,9 km/h (3 Bft)
16.12.2013 07:34 2,4 C 1,1 C 90 % 1023,8 hPa 0,0 l/m 0 min 0 min 0,0 UV-I 0 W/m 10,3 km/h (2 Bft)
16.12.2013 07:36 2,4 C 1,1 C 90 % 1023,9 hPa 0,0 l/m 0 min 0 min 0,0 UV-I 0 W/m 5,1 km/h (1 Bft)
16.12.2013 07:38 2,4 C 0,6 C 90 % 1023,9 hPa 0,0 l/m 0 min 0 min 0,0 UV-I 0 W/m 10,3 km/h (2 Bft)
16.12.2013 07:40 2,4 C 1,1 C 90 % 1023,9 hPa 0,0 l/m 0 min 0 min 0,0 UV-I 0 W/m 12,9 km/h (3 Bft)
16.12.2013 07:42 2,4 C 1,1 C 90 % 1023,9 hPa 0,0 l/m 0 min 0 min 0,0 UV-I 0 W/m 12,9 km/h (3 Bft)
16.12.2013 07:44 2,4 C 1,1 C 90 % 1023,8 hPa 0,0 l/m 0 min 0 min 0,0 UV-I 0 W/m 10,3 km/h (2 Bft)
16.12.2013 07:46 2,4 C 1,1 C 90 % 1023,9 hPa 0,0 l/m 0 min 0 min 0,0 UV-I 0 W/m 0,0 km/h (0 Bft)
16.12.2013 07:48 2,4 C 1,1 C 90 % 1023,9 hPa 0,0 l/m 0 min 0 min 0,0 UV-I 0 W/m 10,3 km/h (2 Bft)
16.12.2013 07:50 2,4 C 1,1 C 90 % 1023,8 hPa 0,0 l/m 0 min 0 min 0,0 UV-I 0 W/m 5,1 km/h (1 Bft)
16.12.2013 07:52 2,4 C 0,6 C 90 % 1023,9 hPa 0,0 l/m 0 min 0 min 0,0 UV-I 0 W/m 7,7 km/h (2 Bft)
16.12.2013 07:54 2,4 C 0,6 C 91 % 1023,9 hPa 0,0 l/m 0 min 0 min 0,0 UV-I 0 W/m 0,0 km/h (0 Bft)
16.12.2013 07:56 2,4 C 0,6 C 91 % 1023,9 hPa 0,0 l/m 0 min 0 min 0,0 UV-I 0 W/m 0,0 km/h (0 Bft)
16.12.2013 07:58 2,4 C 0,6 C 91 % 1023,9 hPa 0,0 l/m 0 min 0 min 0,0 UV-I 0 W/m 2,6 km/h (1 Bft)
16.12.2013 08:00 2,4 C 0,6 C 91 % 1023,9 hPa 0,0 l/m 0 min 0 min 0,0 UV-I 0 W/m 0,0 km/h (0 Bft)
16.12.2013 08:02 2,4 C 0,6 C 91 % 1023,8 hPa 0,0 l/m 0 min 0 min 0,0 UV-I 0 W/m 0,0 km/h (0 Bft)
16.12.2013 08:06 2,4 C 0,6 C 91 % 1023,8 hPa 0,0 l/m 0 min 0 min 0,0 UV-I 0 W/m 5,1 km/h (1 Bft)
16.12.2013 08:08 2,4 C 0,6 C 91 % 1023,8 hPa 0,0 l/m 0 min 0 min 0,0 UV-I 0 W/m 2,6 km/h (1 Bft)
16.12.2013 08:10 2,4 C 0,6 C 91 % 1023,8 hPa 0,0 l/m 0 min 0 min 0,0 UV-I 0 W/m 0,0 km/h (0 Bft)
16.12.2013 08:12 2,4 C 0,6 C 91 % 1023,9 hPa 0,0 l/m 0 min 0 min 0,0 UV-I 0 W/m 7,7 km/h (2 Bft)
16.12.2013 08:14 2,4 C 0,6 C 91 % 1023,9 hPa 0,0 l/m 0 min 0 min 0,0 UV-I 0 W/m 5,1 km/h (1 Bft)
16.12.2013 08:16 2,4 C 0,6 C 91 % 1023,8 hPa 0,0 l/m 0 min 0 min 0,0 UV-I 0 W/m 7,7 km/h (2 Bft)
16.12.2013 08:18 2,4 C 0,6 C 91 % 1023,8 hPa 0,0 l/m 0 min 0 min 0,0 UV-I 5 W/m 7,7 km/h (2 Bft)
16.12.2013 08:20 2,4 C 0,6 C 91 % 1023,8 hPa 0,0 l/m 0 min 0 min 0,0 UV-I 5 W/m 12,9 km/h (3 Bft)
16.12.2013 08:22 2,4 C 0,6 C 91 % 1023,8 hPa 0,0 l/m 0 min 0 min 0,0 UV-I 5 W/m 7,7 km/h (2 Bft)
16.12.2013 08:24 2,4 C 0,6 C 91 % 1023,8 hPa 0,0 l/m 0 min 0 min 0,0 UV-I 5 W/m 7,7 km/h (2 Bft)
16.12.2013 08:26 2,4 C 1,1 C 91 % 1023,8 hPa 0,0 l/m 0 min 0 min 0,0 UV-I 5 W/m 10,3 km/h (2 Bft)
16.12.2013 08:28 2,5 C 1,1 C 91 % 1023,8 hPa 0,0 l/m 0 min 0 min 0,0 UV-I 5 W/m 10,3 km/h (2 Bft)
16.12.2013 08:30 2,5 C 1,1 C 91 % 1023,8 hPa 0,0 l/m 0 min 0 min 0,0 UV-I 5 W/m 5,1 km/h (1 Bft)
16.12.2013 08:32 2,5 C 1,1 C 91 % 1023,8 hPa 0,0 l/m 0 min 0 min 0,0 UV-I 5 W/m 5,1 km/h (1 Bft)
16.12.2013 08:34 2,5 C 1,1 C 91 % 1023,7 hPa 0,0 l/m 0 min 0 min 0,0 UV-I 5 W/m 10,3 km/h (2 Bft)
16.12.2013 08:36 2,6 C 1,1 C 91 % 1023,7 hPa 0,0 l/m 0 min 0 min 0,0 UV-I 7 W/m 7,7 km/h (2 Bft)
16.12.2013 08:38 2,6 C 1,1 C 91 % 1023,7 hPa 0,0 l/m 0 min 0 min 0,0 UV-I 7 W/m 0,0 km/h (0 Bft)
16.12.2013 08:40 2,6 C 1,1 C 91 % 1023,8 hPa 0,0 l/m 0 min 0 min 0,0 UV-I 9 W/m 0,0 km/h (0 Bft)
16.12.2013 08:42 2,6 C 1,1 C 91 % 1023,8 hPa 0,0 l/m 0 min 0 min 0,0 UV-I 11 W/m 5,1 km/h (1 Bft)
16.12.2013 08:44 2,6 C 1,1 C 92 % 1023,8 hPa 0,0 l/m 0 min 0 min 0,0 UV-I 12 W/m 5,1 km/h (1 Bft)
16.12.2013 08:46 2,6 C 1,1 C 92 % 1023,9 hPa 0,0 l/m 0 min 0 min 0,0 UV-I 12 W/m 0,0 km/h (0 Bft)
16.12.2013 08:48 2,6 C 1,1 C 92 % 1023,8 hPa 0,0 l/m 0 min 0 min 0,0 UV-I 14 W/m 0,0 km/h (0 Bft)
16.12.2013 08:50 2,7 C 1,1 C 92 % 1023,8 hPa 0,0 l/m 0 min 0 min 0,0 UV-I 14 W/m 0,0 km/h (0 Bft)
16.12.2013 08:52 2,7 C 1,1 C 92 % 1023,9 hPa 0,0 l/m 0 min 0 min 0,0 UV-I 16 W/m 0,0 km/h (0 Bft)
16.12.2013 08:54 2,7 C 1,1 C 92 % 1023,9 hPa 0,0 l/m 0 min 0 min 0,0 UV-I 18 W/m 7,7 km/h (2 Bft)
16.12.2013 08:56 2,7 C 1,1 C 92 % 1023,8 hPa 0,0 l/m 0 min 0 min 0,0 UV-I 19 W/m 7,7 km/h (2 Bft)
16.12.2013 08:58 2,8 C 1,7 C 92 % 1023,9 hPa 0,0 l/m 0 min 0 min 0,0 UV-I 21 W/m 7,7 km/h (2 Bft)
16.12.2013 09:00 2,8 C 1,7 C 92 % 1023,9 hPa 0,0 l/m 0 min 0 min 0,0 UV-I 21 W/m 2,6 km/h (1 Bft)
16.12.2013 09:02 2,8 C 1,7 C 92 % 1023,9 hPa 0,0 l/m 0 min 0 min 0,0 UV-I 23 W/m 0,0 km/h (0 Bft)
16.12.2013 09:04 2,9 C 1,7 C 92 % 1023,9 hPa 0,0 l/m 0 min 0 min 0,0 UV-I 23 W/m 0,0 km/h (0 Bft)
16.12.2013 09:06 2,9 C 1,7 C 92 % 1024,0 hPa 0,0 l/m 0 min 0 min 0,0 UV-I 25 W/m 0,0 km/h (0 Bft)
16.12.2013 09:08 2,9 C 1,7 C 93 % 1023,9 hPa 0,0 l/m 0 min 0 min 0,0 UV-I 25 W/m 0,0 km/h (0 Bft)
16.12.2013 09:10 2,9 C 1,7 C 93 % 1024,0 hPa 0,0 l/m 0 min 0 min 0,0 UV-I 26 W/m 5,1 km/h (1 Bft)
16.12.2013 09:12 3,0 C 1,7 C 93 % 1023,9 hPa 0,0 l/m 0 min 0 min 0,0 UV-I 28 W/m 10,3 km/h (2 Bft)
16.12.2013 09:14 3,0 C 1,7 C 93 % 1024,0 hPa 0,0 l/m 0 min 0 min 0,0 UV-I 28 W/m 7,7 km/h (2 Bft)
16.12.2013 09:16 3,1 C 2,2 C 93 % 1024,0 hPa 0,0 l/m 0 min 0 min 0,0 UV-I 30 W/m 10,3 km/h (2 Bft)
16.12.2013 09:18 3,2 C 2,2 C 93 % 1024,0 hPa 0,0 l/m 0 min 0 min 0,0 UV-I 30 W/m 2,6 km/h (1 Bft)
16.12.2013 09:20 3,3 C 2,2 C 93 % 1024,0 hPa 0,0 l/m 0 min 0 min 0,0 UV-I 30 W/m 5,1 km/h (1 Bft)
16.12.2013 09:22 3,3 C 2,2 C 93 % 1024,0 hPa 0,0 l/m 0 min 0 min 0,0 UV-I 33 W/m 7,7 km/h (2 Bft)
16.12.2013 09:24 3,4 C 2,2 C 93 % 1024,1 hPa 0,0 l/m 0 min 0 min 0,0 UV-I 39 W/m 15,4 km/h (3 Bft)
16.12.2013 09:26 3,5 C 2,8 C 93 % 1024,0 hPa 0,0 l/m 0 min 0 min 0,0 UV-I 37 W/m 7,7 km/h (2 Bft)
16.12.2013 09:28 3,6 C 2,8 C 93 % 1023,9 hPa 0,0 l/m 0 min 0 min 0,0 UV-I 39 W/m 18,0 km/h (3 Bft)
16.12.2013 09:30 3,7 C 2,8 C 94 % 1023,9 hPa 0,0 l/m 0 min 0 min 0,0 UV-I 42 W/m 10,3 km/h (2 Bft)
16.12.2013 09:32 3,8 C 2,8 C 94 % 1023,8 hPa 0,0 l/m 0 min 0 min 0,0 UV-I 40 W/m 7,7 km/h (2 Bft)
16.12.2013 09:34 3,8 C 2,8 C 94 % 1023,9 hPa 0,0 l/m 0 min 0 min 0,0 UV-I 42 W/m 10,3 km/h (2 Bft)
16.12.2013 09:36 3,9 C 3,3 C 94 % 1023,9 hPa 0,0 l/m 0 min 0 min 0,0 UV-I 49 W/m 15,4 km/h (3 Bft)
16.12.2013 09:38 4,0 C 3,3 C 94 % 1023,9 hPa 0,0 l/m 0 min 0 min 0,0 UV-I 58 W/m 2,6 km/h (1 Bft)
16.12.2013 09:40 4,1 C 3,3 C 94 % 1023,9 hPa 0,0 l/m 0 min 0 min 0,0 UV-I 53 W/m 5,1 km/h (1 Bft)
16.12.2013 09:42 4,2 C 3,3 C 94 % 1023,9 hPa 0,0 l/m 0 min 0 min 0,0 UV-I 56 W/m 7,7 km/h (2 Bft)
16.12.2013 09:44 4,3 C 3,3 C 94 % 1023,9 hPa 0,0 l/m 0 min 0 min 0,0 UV-I 65 W/m 7,7 km/h (2 Bft)
16.12.2013 09:46 4,4 C 3,9 C 94 % 1023,9 hPa 0,0 l/m 0 min 0 min 0,0 UV-I 69 W/m 10,3 km/h (2 Bft)
16.12.2013 09:48 4,6 C 3,9 C 94 % 1023,9 hPa 0,0 l/m 0 min 0 min 0,0 UV-I 67 W/m 5,1 km/h (1 Bft)
16.12.2013 09:50 4,7 C 3,9 C 94 % 1023,9 hPa 0,0 l/m 0 min 0 min 0,0 UV-I 69 W/m 10,3 km/h (2 Bft)
16.12.2013 09:52 4,7 C 3,9 C 94 % 1024,0 hPa 0,0 l/m 0 min 0 min 0,0 UV-I 76 W/m 10,3 km/h (2 Bft)
16.12.2013 09:54 4,8 C 3,9 C 94 % 1023,9 hPa 0,0 l/m 0 min 0 min 0,0 UV-I 74 W/m 7,7 km/h (2 Bft)
16.12.2013 09:56 4,9 C 3,9 C 94 % 1024,0 hPa 0,0 l/m 0 min 0 min 0,0 UV-I 76 W/m 7,7 km/h (2 Bft)
16.12.2013 09:58 5,0 C 3,9 C 94 % 1024,0 hPa 0,0 l/m 0 min 0 min 0,0 UV-I 77 W/m 10,3 km/h (2 Bft)
16.12.2013 10:00 5,1 C 3,9 C 94 % 1023,9 hPa 0,0 l/m 2 min 0 min 0,0 UV-I 86 W/m 12,9 km/h (3 Bft)
16.12.2013 10:02 5,1 C 3,9 C 94 % 1023,9 hPa 0,0 l/m 2 min 0 min 0,0 UV-I 91 W/m 12,9 km/h (3 Bft)
16.12.2013 10:06 5,2 C 4,4 C 93 % 1023,9 hPa 0,0 l/m 0 min 0 min 0,0 UV-I 86 W/m 20,6 km/h (4 Bft)
16.12.2013 10:08 5,3 C 4,4 C 93 % 1024,0 hPa 0,0 l/m 2 min 0 min 0,0 UV-I 90 W/m 12,9 km/h (3 Bft)
16.12.2013 10:10 5,3 C 4,4 C 93 % 1024,0 hPa 0,0 l/m 2 min 0 min 0,0 UV-I 97 W/m 15,4 km/h (3 Bft)
16.12.2013 10:12 5,4 C 4,4 C 93 % 1024,0 hPa 0,0 l/m 2 min 0 min 0,0 UV-I 113 W/m 15,4 km/h (3 Bft)
16.12.2013 10:14 5,4 C 4,4 C 93 % 1024,0 hPa 0,0 l/m 2 min 0 min 0,0 UV-I 97 W/m 15,4 km/h (3 Bft)
16.12.2013 10:16 5,6 C 4,4 C 92 % 1024,0 hPa 0,0 l/m 2 min 0 min 0,0 UV-I 98 W/m 18,0 km/h (3 Bft)
16.12.2013 10:18 5,7 C 4,4 C 91 % 1024,0 hPa 0,0 l/m 2 min 0 min 0,0 UV-I 102 W/m 12,9 km/h (3 Bft)
16.12.2013 10:20 5,8 C 4,4 C 91 % 1024,1 hPa 0,0 l/m 2 min 0 min 0,0 UV-I 102 W/m 18,0 km/h (3 Bft)
16.12.2013 10:22 5,9 C 4,4 C 90 % 1024,0 hPa 0,0 l/m 0 min 0 min 0,0 UV-I 98 W/m 15,4 km/h (3 Bft)
16.12.2013 10:24 5,9 C 4,4 C 89 % 1024,1 hPa 0,0 l/m 0 min 0 min 0,0 UV-I 88 W/m 12,9 km/h (3 Bft)
16.12.2013 10:26 6,0 C 4,4 C 89 % 1024,1 hPa 0,0 l/m 0 min 0 min 0,0 UV-I 100 W/m 18,0 km/h (3 Bft)
16.12.2013 10:28 6,1 C 4,4 C 88 % 1024,1 hPa 0,0 l/m 2 min 0 min 0,0 UV-I 111 W/m 18,0 km/h (3 Bft)
16.12.2013 10:30 6,1 C 4,4 C 88 % 1024,1 hPa 0,0 l/m 2 min 0 min 0,0 UV-I 130 W/m 18,0 km/h (3 Bft)
16.12.2013 10:32 6,2 C 4,4 C 87 % 1024,1 hPa 0,0 l/m 2 min 0 min 0,0 UV-I 120 W/m 12,9 km/h (3 Bft)
16.12.2013 10:34 6,3 C 4,4 C 87 % 1024,0 hPa 0,0 l/m 0 min 0 min 0,0 UV-I 105 W/m 10,3 km/h (2 Bft)
16.12.2013 10:36 6,3 C 4,4 C 87 % 1024,1 hPa 0,0 l/m 2 min 0 min 0,0 UV-I 128 W/m 15,4 km/h (3 Bft)
16.12.2013 10:38 6,4 C 4,4 C 87 % 1024,1 hPa 0,0 l/m 2 min 0 min 0,0 UV-I 114 W/m 7,7 km/h (2 Bft)
16.12.2013 10:40 6,4 C 4,4 C 86 % 1024,2 hPa 0,0 l/m 2 min 0 min 0,0 UV-I 116 W/m 7,7 km/h (2 Bft)
16.12.2013 10:42 6,4 C 5,0 C 86 % 1024,1 hPa 0,0 l/m 2 min 0 min 0,0 UV-I 127 W/m 12,9 km/h (3 Bft)
16.12.2013 10:44 6,5 C 5,0 C 86 % 1024,1 hPa 0,0 l/m 2 min 0 min 0,0 UV-I 118 W/m 12,9 km/h (3 Bft)
16.12.2013 10:46 6,5 C 5,0 C 86 % 1024,1 hPa 0,0 l/m 2 min 0 min 0,0 UV-I 125 W/m 10,3 km/h (2 Bft)
16.12.2013 10:48 6,6 C 5,0 C 86 % 1024,1 hPa 0,0 l/m 2 min 0 min 0,0 UV-I 130 W/m 12,9 km/h (3 Bft)
16.12.2013 10:50 6,6 C 5,0 C 86 % 1024,0 hPa 0,0 l/m 2 min 0 min 0,0 UV-I 135 W/m 15,4 km/h (3 Bft)
16.12.2013 10:52 6,6 C 5,0 C 86 % 1024,1 hPa 0,0 l/m 2 min 0 min 0,0 UV-I 135 W/m 15,4 km/h (3 Bft)
16.12.2013 10:54 6,7 C 5,0 C 85 % 1024,0 hPa 0,0 l/m 2 min 0 min 0,0 UV-I 132 W/m 7,7 km/h (2 Bft)
16.12.2013 10:56 6,7 C 5,0 C 85 % 1024,0 hPa 0,0 l/m 2 min 0 min 0,0 UV-I 125 W/m 15,4 km/h (3 Bft)
16.12.2013 10:58 6,7 C 5,0 C 85 % 1024,0 hPa 0,0 l/m 2 min 0 min 0,0 UV-I 127 W/m 15,4 km/h (3 Bft)
16.12.2013 11:00 6,7 C 5,0 C 85 % 1024,1 hPa 0,0 l/m 2 min 0 min 0,0 UV-I 134 W/m 15,4 km/h (3 Bft)
16.12.2013 11:02 6,8 C 5,0 C 85 % 1024,1 hPa 0,0 l/m 2 min 0 min 0,0 UV-I 137 W/m 15,4 km/h (3 Bft)
16.12.2013 11:04 6,8 C 5,0 C 85 % 1024,1 hPa 0,0 l/m 2 min 0 min 0,0 UV-I 153 W/m 15,4 km/h (3 Bft)
16.12.2013 11:06 6,9 C 5,0 C 84 % 1024,1 hPa 0,0 l/m 2 min 0 min 0,0 UV-I 162 W/m 18,0 km/h (3 Bft)
16.12.2013 11:08 6,9 C 5,0 C 84 % 1024,0 hPa 0,0 l/m 2 min 0 min 0,0 UV-I 167 W/m 15,4 km/h (3 Bft)
16.12.2013 11:10 7,1 C 5,6 C 84 % 1024,1 hPa 0,0 l/m 2 min 0 min 0,0 UV-I 185 W/m 10,3 km/h (2 Bft)
16.12.2013 11:12 7,1 C 5,6 C 84 % 1024,1 hPa 0,0 l/m 2 min 0 min 0,0 UV-I 188 W/m 18,0 km/h (3 Bft)
16.12.2013 11:14 7,2 C 5,6 C 84 % 1024,0 hPa 0,0 l/m 2 min 0 min 0,0 UV-I 186 W/m 18,0 km/h (3 Bft)
16.12.2013 11:16 7,3 C 5,6 C 83 % 1024,0 hPa 0,0 l/m 2 min 0 min 0,0 UV-I 207 W/m 15,4 km/h (3 Bft)
16.12.2013 11:18 7,4 C 5,6 C 83 % 1024,0 hPa 0,0 l/m 2 min 0 min 0,0 UV-I 207 W/m 18,0 km/h (3 Bft)
16.12.2013 11:20 7,6 C 5,6 C 83 % 1024,0 hPa 0,0 l/m 2 min 0 min 0,0 UV-I 193 W/m 20,6 km/h (4 Bft)
16.12.2013 11:22 7,6 C 5,6 C 82 % 1024,0 hPa 0,0 l/m 2 min 0 min 0,0 UV-I 183 W/m 12,9 km/h (3 Bft)
16.12.2013 11:24 7,7 C 6,1 C 82 % 1024,0 hPa 0,0 l/m 2 min 0 min 0,0 UV-I 172 W/m 20,6 km/h (4 Bft)
16.12.2013 11:26 7,7 C 6,1 C 82 % 1024,1 hPa 0,0 l/m 2 min 0 min 0,0 UV-I 165 W/m 18,0 km/h (3 Bft)
16.12.2013 11:28 7,7 C 5,6 C 82 % 1024,0 hPa 0,0 l/m 2 min 0 min 0,0 UV-I 156 W/m 15,4 km/h (3 Bft)
16.12.2013 11:30 7,7 C 5,6 C 82 % 1024,1 hPa 0,0 l/m 2 min 0 min 0,0 UV-I 165 W/m 15,4 km/h (3 Bft)
16.12.2013 11:32 7,7 C 6,1 C 82 % 1024,0 hPa 0,0 l/m 2 min 0 min 0,0 UV-I 181 W/m 18,0 km/h (3 Bft)
16.12.2013 11:34 7,7 C 6,1 C 82 % 1024,1 hPa 0,0 l/m 2 min 0 min 0,0 UV-I 165 W/m 12,9 km/h (3 Bft)
16.12.2013 11:36 7,8 C 6,1 C 82 % 1024,1 hPa 0,0 l/m 2 min 0 min 0,0 UV-I 160 W/m 15,4 km/h (3 Bft)
16.12.2013 11:38 7,8 C 6,1 C 82 % 1024,1 hPa 0,0 l/m 2 min 0 min 0,0 UV-I 162 W/m 20,6 km/h (4 Bft)
16.12.2013 11:40 7,8 C 6,1 C 81 % 1024,0 hPa 0,0 l/m 2 min 0 min 0,0 UV-I 151 W/m 20,6 km/h (4 Bft)
16.12.2013 11:42 7,8 C 6,1 C 81 % 1024,0 hPa 0,0 l/m 2 min 0 min 0,0 UV-I 160 W/m 25,7 km/h (4 Bft)
16.12.2013 11:44 7,8 C 6,1 C 81 % 1023,9 hPa 0,0 l/m 2 min 0 min 0,0 UV-I 172 W/m 15,4 km/h (3 Bft)
16.12.2013 11:46 7,9 C 6,1 C 81 % 1023,9 hPa 0,0 l/m 2 min 0 min 0,0 UV-I 185 W/m 15,4 km/h (3 Bft)
16.12.2013 11:48 7,9 C 6,1 C 81 % 1024,0 hPa 0,0 l/m 2 min 0 min 0,0 UV-I 195 W/m 15,4 km/h (3 Bft)
16.12.2013 11:50 8,0 C 6,1 C 81 % 1023,8 hPa 0,0 l/m 2 min 0 min 0,0 UV-I 192 W/m 18,0 km/h (3 Bft)
16.12.2013 11:52 8,1 C 6,7 C 81 % 1024,0 hPa 0,0 l/m 2 min 0 min 0,0 UV-I 190 W/m 12,9 km/h (3 Bft)
16.12.2013 11:54 8,1 C 6,7 C 81 % 1023,9 hPa 0,0 l/m 2 min 0 min 0,0 UV-I 181 W/m 18,0 km/h (3 Bft)
16.12.2013 11:56 8,1 C 6,7 C 81 % 1023,8 hPa 0,0 l/m 2 min 0 min 0,0 UV-I 162 W/m 23,2 km/h (4 Bft)
16.12.2013 11:58 8,1 C 6,7 C 81 % 1023,9 hPa 0,0 l/m 2 min 0 min 0,0 UV-I 160 W/m 10,3 km/h (2 Bft)
16.12.2013 12:00 8,1 C 6,7 C 81 % 1023,8 hPa 0,0 l/m 2 min 0 min 0,0 UV-I 174 W/m 12,9 km/h (3 Bft)
16.12.2013 12:02 8,1 C 6,7 C 81 % 1023,8 hPa 0,0 l/m 2 min 0 min 0,0 UV-I 158 W/m 18,0 km/h (3 Bft)
16.12.2013 12:04 8,1 C 6,7 C 81 % 1023,8 hPa 0,0 l/m 2 min 0 min 0,0 UV-I 149 W/m 20,6 km/h (4 Bft)
16.12.2013 12:06 8,1 C 6,7 C 81 % 1023,8 hPa 0,0 l/m 2 min 0 min 0,0 UV-I 165 W/m 20,6 km/h (4 Bft)
16.12.2013 12:08 8,2 C 6,7 C 81 % 1023,7 hPa 0,0 l/m 2 min 0 min 0,0 UV-I 149 W/m 20,6 km/h (4 Bft)
16.12.2013 12:10 8,2 C 6,7 C 81 % 1023,8 hPa 0,0 l/m 0 min 0 min 0,0 UV-I 144 W/m 18,0 km/h (3 Bft)
16.12.2013 12:12 8,2 C 6,7 C 81 % 1023,8 hPa 0,0 l/m 2 min 0 min 0,0 UV-I 155 W/m 15,4 km/h (3 Bft)
16.12.2013 12:14 8,2 C 6,7 C 81 % 1023,7 hPa 0,0 l/m 0 min 0 min 0,0 UV-I 144 W/m 15,4 km/h (3 Bft)
16.12.2013 12:16 8,2 C 6,7 C 81 % 1023,7 hPa 0,0 l/m 2 min 0 min 0,0 UV-I 153 W/m 20,6 km/h (4 Bft)
16.12.2013 12:18 8,2 C 6,7 C 81 % 1023,7 hPa 0,0 l/m 0 min 0 min 0,0 UV-I 134 W/m 20,6 km/h (4 Bft)
16.12.2013 12:20 8,2 C 6,7 C 82 % 1023,7 hPa 0,0 l/m 0 min 0 min 0,0 UV-I 135 W/m 18,0 km/h (3 Bft)
16.12.2013 12:22 8,3 C 6,7 C 82 % 1023,7 hPa 0,0 l/m 0 min 0 min 0,0 UV-I 132 W/m 15,4 km/h (3 Bft)
16.12.2013 12:24 8,3 C 6,7 C 82 % 1023,6 hPa 0,0 l/m 2 min 0 min 0,0 UV-I 167 W/m 15,4 km/h (3 Bft)
16.12.2013 12:26 8,3 C 6,7 C 82 % 1023,6 hPa 0,0 l/m 2 min 0 min 0,0 UV-I 167 W/m 18,0 km/h (3 Bft)
16.12.2013 12:28 8,4 C 6,7 C 82 % 1023,6 hPa 0,0 l/m 2 min 0 min 0,0 UV-I 162 W/m 23,2 km/h (4 Bft)
16.12.2013 12:30 8,4 C 6,7 C 82 % 1023,5 hPa 0,0 l/m 2 min 0 min 0,0 UV-I 162 W/m 12,9 km/h (3 Bft)
16.12.2013 12:32 8,4 C 7,2 C 82 % 1023,5 hPa 0,0 l/m 2 min 0 min 0,0 UV-I 156 W/m 15,4 km/h (3 Bft)
16.12.2013 12:34 8,5 C 7,2 C 82 % 1023,5 hPa 0,0 l/m 2 min 0 min 0,0 UV-I 178 W/m 18,0 km/h (3 Bft)
16.12.2013 12:36 8,6 C 7,2 C 82 % 1023,5 hPa 0,0 l/m 2 min 0 min 0,0 UV-I 167 W/m 15,4 km/h (3 Bft)
16.12.2013 12:38 8,6 C 7,2 C 82 % 1023,5 hPa 0,0 l/m 2 min 0 min 0,0 UV-I 162 W/m 15,4 km/h (3 Bft)
16.12.2013 12:40 8,7 C 7,2 C 82 % 1023,5 hPa 0,0 l/m 2 min 0 min 0,0 UV-I 176 W/m 12,9 km/h (3 Bft)
16.12.2013 12:42 8,7 C 7,2 C 82 % 1023,4 hPa 0,0 l/m 2 min 0 min 0,0 UV-I 163 W/m 15,4 km/h (3 Bft)
16.12.2013 12:44 8,7 C 7,2 C 81 % 1023,4 hPa 0,0 l/m 2 min 0 min 0,0 UV-I 169 W/m 15,4 km/h (3 Bft)
16.12.2013 12:46 8,8 C 7,8 C 81 % 1023,3 hPa 0,0 l/m 2 min 0 min 0,0 UV-I 193 W/m 15,4 km/h (3 Bft)
16.12.2013 12:48 8,9 C 7,8 C 81 % 1023,3 hPa 0,0 l/m 2 min 0 min 0,0 UV-I 167 W/m 20,6 km/h (4 Bft)
16.12.2013 12:50 8,9 C 7,8 C 81 % 1023,3 hPa 0,0 l/m 0 min 0 min 0,0 UV-I 135 W/m 25,7 km/h (4 Bft)
16.12.2013 12:52 8,9 C 7,8 C 81 % 1023,3 hPa 0,0 l/m 0 min 0 min 0,0 UV-I 125 W/m 23,2 km/h (4 Bft)
16.12.2013 12:54 8,8 C 7,8 C 81 % 1023,3 hPa 0,0 l/m 0 min 0 min 0,0 UV-I 125 W/m 20,6 km/h (4 Bft)
16.12.2013 12:56 8,8 C 7,2 C 80 % 1023,3 hPa 0,0 l/m 0 min 0 min 0,0 UV-I 125 W/m 20,6 km/h (4 Bft)
16.12.2013 12:58 8,8 C 7,2 C 81 % 1023,3 hPa 0,0 l/m 0 min 0 min 0,0 UV-I 127 W/m 20,6 km/h (4 Bft)
16.12.2013 13:00 8,7 C 7,2 C 81 % 1023,2 hPa 0,0 l/m 0 min 0 min 0,0 UV-I 132 W/m 23,2 km/h (4 Bft)
16.12.2013 13:02 8,7 C 7,2 C 80 % 1023,1 hPa 0,0 l/m 0 min 0 min 0,0 UV-I 135 W/m 33,5 km/h (5 Bft)
16.12.2013 13:06 8,7 C 7,8 C 81 % 1023,2 hPa 0,0 l/m 0 min 0 min 0,0 UV-I 141 W/m 23,2 km/h (4 Bft)
16.12.2013 13:08 8,7 C 7,8 C 80 % 1023,3 hPa 0,0 l/m 2 min 0 min 0,0 UV-I 146 W/m 20,6 km/h (4 Bft)
16.12.2013 13:10 8,7 C 7,8 C 80 % 1023,3 hPa 0,0 l/m 2 min 0 min 0,0 UV-I 174 W/m 15,4 km/h (3 Bft)
16.12.2013 13:12 8,7 C 7,8 C 80 % 1023,3 hPa 0,0 l/m 2 min 0 min 0,0 UV-I 156 W/m 15,4 km/h (3 Bft)
16.12.2013 13:14 8,8 C 7,8 C 80 % 1023,2 hPa 0,0 l/m 2 min 0 min 0,0 UV-I 156 W/m 18,0 km/h (3 Bft)
16.12.2013 13:16 8,8 C 7,8 C 80 % 1023,2 hPa 0,0 l/m 2 min 0 min 0,0 UV-I 146 W/m 18,0 km/h (3 Bft)
16.12.2013 13:18 8,8 C 7,8 C 80 % 1023,1 hPa 0,0 l/m 2 min 0 min 0,0 UV-I 149 W/m 18,0 km/h (3 Bft)
16.12.2013 13:20 8,9 C 7,8 C 79 % 1023,1 hPa 0,0 l/m 2 min 0 min 0,0 UV-I 156 W/m 20,6 km/h (4 Bft)
16.12.2013 13:22 8,9 C 7,8 C 79 % 1023,1 hPa 0,0 l/m 2 min 0 min 0,0 UV-I 156 W/m 15,4 km/h (3 Bft)
16.12.2013 13:24 8,9 C 7,8 C 79 % 1023,1 hPa 0,0 l/m 2 min 0 min 0,0 UV-I 165 W/m 18,0 km/h (3 Bft)
16.12.2013 13:26 9,0 C 7,8 C 79 % 1023,1 hPa 0,0 l/m 2 min 0 min 0,0 UV-I 174 W/m 18,0 km/h (3 Bft)
16.12.2013 13:28 9,1 C 7,8 C 79 % 1023,0 hPa 0,0 l/m 2 min 0 min 0,0 UV-I 172 W/m 12,9 km/h (3 Bft)
16.12.2013 13:30 9,1 C 7,8 C 79 % 1023,1 hPa 0,0 l/m 2 min 0 min 0,0 UV-I 162 W/m 15,4 km/h (3 Bft)
16.12.2013 13:32 9,1 C 7,8 C 79 % 1023,0 hPa 0,0 l/m 2 min 0 min 0,0 UV-I 155 W/m 15,4 km/h (3 Bft)
16.12.2013 13:34 9,2 C 7,8 C 79 % 1023,0 hPa 0,0 l/m 2 min 0 min 0,0 UV-I 139 W/m 20,6 km/h (4 Bft)
16.12.2013 13:36 9,2 C 7,8 C 79 % 1023,1 hPa 0,0 l/m 0 min 0 min 0,0 UV-I 135 W/m 12,9 km/h (3 Bft)
16.12.2013 13:38 9,2 C 7,8 C 78 % 1023,0 hPa 0,0 l/m 0 min 0 min 0,0 UV-I 128 W/m 12,9 km/h (3 Bft)
16.12.2013 13:40 9,2 C 7,8 C 78 % 1023,0 hPa 0,0 l/m 0 min 0 min 0,0 UV-I 123 W/m 20,6 km/h (4 Bft)
16.12.2013 13:42 9,2 C 7,8 C 78 % 1022,9 hPa 0,0 l/m 0 min 0 min 0,0 UV-I 120 W/m 15,4 km/h (3 Bft)
16.12.2013 13:44 9,2 C 7,8 C 78 % 1023,0 hPa 0,0 l/m 0 min 0 min 0,0 UV-I 120 W/m 18,0 km/h (3 Bft)
16.12.2013 13:46 9,2 C 7,8 C 78 % 1023,0 hPa 0,0 l/m 0 min 0 min 0,0 UV-I 120 W/m 18,0 km/h (3 Bft)
16.12.2013 13:48 9,2 C 7,8 C 78 % 1023,0 hPa 0,0 l/m 0 min 0 min 0,0 UV-I 121 W/m 10,3 km/h (2 Bft)
16.12.2013 13:50 9,2 C 7,8 C 79 % 1023,0 hPa 0,0 l/m 0 min 0 min 0,0 UV-I 121 W/m 7,7 km/h (2 Bft)
16.12.2013 13:52 9,2 C 7,8 C 79 % 1023,0 hPa 0,0 l/m 2 min 0 min 0,0 UV-I 132 W/m 12,9 km/h (3 Bft)
16.12.2013 13:54 9,2 C 7,8 C 78 % 1023,0 hPa 0,0 l/m 0 min 0 min 0,0 UV-I 123 W/m 12,9 km/h (3 Bft)
16.12.2013 13:56 9,2 C 7,8 C 78 % 1023,0 hPa 0,0 l/m 0 min 0 min 0,0 UV-I 120 W/m 18,0 km/h (3 Bft)
16.12.2013 13:58 9,3 C 7,8 C 78 % 1023,0 hPa 0,0 l/m 0 min 0 min 0,0 UV-I 120 W/m 15,4 km/h (3 Bft)
16.12.2013 14:00 9,3 C 7,8 C 78 % 1022,9 hPa 0,0 l/m 2 min 0 min 0,0 UV-I 141 W/m 10,3 km/h (2 Bft)
16.12.2013 14:02 9,3 C 7,8 C 78 % 1022,9 hPa 0,0 l/m 2 min 0 min 0,0 UV-I 171 W/m 12,9 km/h (3 Bft)
16.12.2013 14:06 9,4 C 7,8 C 78 % 1022,8 hPa 0,0 l/m 2 min 0 min 0,0 UV-I 192 W/m 18,0 km/h (3 Bft)
16.12.2013 14:08 9,5 C 7,8 C 78 % 1022,9 hPa 0,0 l/m 2 min 0 min 0,0 UV-I 186 W/m 10,3 km/h (2 Bft)
16.12.2013 14:10 9,6 C 7,8 C 77 % 1022,8 hPa 0,0 l/m 2 min 0 min 0,0 UV-I 183 W/m 25,7 km/h (4 Bft)
16.12.2013 14:12 9,6 C 7,8 C 77 % 1022,8 hPa 0,0 l/m 2 min 0 min 0,0 UV-I 186 W/m 18,0 km/h (3 Bft)
16.12.2013 14:14 9,6 C 8,3 C 77 % 1022,8 hPa 0,0 l/m 2 min 0 min 0,0 UV-I 171 W/m 15,4 km/h (3 Bft)
16.12.2013 14:16 9,6 C 7,8 C 77 % 1022,9 hPa 0,0 l/m 2 min 0 min 0,0 UV-I 158 W/m 20,6 km/h (4 Bft)
16.12.2013 14:18 9,6 C 7,8 C 77 % 1022,8 hPa 0,0 l/m 2 min 0 min 0,0 UV-I 169 W/m 15,4 km/h (3 Bft)
16.12.2013 14:20 9,6 C 8,3 C 77 % 1022,8 hPa 0,0 l/m 2 min 0 min 0,0 UV-I 169 W/m 20,6 km/h (4 Bft)
16.12.2013 14:22 9,7 C 8,3 C 77 % 1022,8 hPa 0,0 l/m 2 min 0 min 0,0 UV-I 151 W/m 15,4 km/h (3 Bft)
16.12.2013 14:24 9,7 C 8,3 C 77 % 1022,9 hPa 0,0 l/m 2 min 0 min 0,0 UV-I 156 W/m 15,4 km/h (3 Bft)
16.12.2013 14:26 9,7 C 8,3 C 80 % 1022,7 hPa 0,0 l/m 2 min 0 min 0,0 UV-I 165 W/m 12,9 km/h (3 Bft)
16.12.2013 14:28 9,7 C 8,3 C 77 % 1022,7 hPa 0,0 l/m 2 min 0 min 0,0 UV-I 162 W/m 23,2 km/h (4 Bft)
16.12.2013 14:30 9,7 C 8,3 C 80 % 1022,6 hPa 0,0 l/m 2 min 0 min 0,0 UV-I 151 W/m 15,4 km/h (3 Bft)
16.12.2013 14:32 9,7 C 8,3 C 79 % 1022,6 hPa 0,0 l/m 2 min 0 min 0,0 UV-I 134 W/m 28,3 km/h (4 Bft)
16.12.2013 14:34 9,7 C 7,8 C 76 % 1022,7 hPa 0,0 l/m 2 min 0 min 0,0 UV-I 125 W/m 20,6 km/h (4 Bft)
16.12.2013 14:36 9,6 C 7,8 C 76 % 1022,7 hPa 0,0 l/m 2 min 0 min 0,0 UV-I 113 W/m 18,0 km/h (3 Bft)
16.12.2013 14:38 9,6 C 7,8 C 77 % 1022,6 hPa 0,0 l/m 0 min 0 min 0,0 UV-I 100 W/m 18,0 km/h (3 Bft)
16.12.2013 14:40 9,6 C 7,8 C 77 % 1022,5 hPa 0,0 l/m 0 min 0 min 0,0 UV-I 93 W/m 23,2 km/h (4 Bft)
16.12.2013 14:42 9,5 C 7,8 C 77 % 1022,5 hPa 0,0 l/m 0 min 0 min 0,0 UV-I 81 W/m 18,0 km/h (3 Bft)
16.12.2013 14:44 9,4 C 7,8 C 76 % 1022,5 hPa 0,0 l/m 0 min 0 min 0,0 UV-I 77 W/m 23,2 km/h (4 Bft)
16.12.2013 14:46 9,4 C 7,8 C 77 % 1022,5 hPa 0,0 l/m 0 min 0 min 0,0 UV-I 79 W/m 23,2 km/h (4 Bft)
16.12.2013 14:48 9,3 C 7,8 C 77 % 1022,6 hPa 0,0 l/m 0 min 0 min 0,0 UV-I 84 W/m 23,2 km/h (4 Bft)
16.12.2013 14:50 9,3 C 7,8 C 77 % 1022,6 hPa 0,0 l/m 2 min 0 min 0,0 UV-I 97 W/m 18,0 km/h (3 Bft)
16.12.2013 14:52 9,3 C 7,8 C 77 % 1022,5 hPa 0,0 l/m 0 min 0 min 0,0 UV-I 84 W/m 20,6 km/h (4 Bft)
16.12.2013 14:54 9,2 C 7,8 C 77 % 1022,6 hPa 0,0 l/m 0 min 0 min 0,0 UV-I 79 W/m 18,0 km/h (3 Bft)
16.12.2013 14:56 9,2 C 7,8 C 77 % 1022,6 hPa 0,0 l/m 0 min 0 min 0,0 UV-I 74 W/m 25,7 km/h (4 Bft)
16.12.2013 14:58 9,2 C 7,8 C 77 % 1022,5 hPa 0,0 l/m 0 min 0 min 0,0 UV-I 72 W/m 15,4 km/h (3 Bft)
16.12.2013 15:00 9,2 C 7,8 C 77 % 1022,5 hPa 0,0 l/m 0 min 0 min 0,0 UV-I 70 W/m 15,4 km/h (3 Bft)
16.12.2013 15:02 9,2 C 7,8 C 77 % 1022,4 hPa 0,0 l/m 0 min 0 min 0,0 UV-I 65 W/m 12,9 km/h (3 Bft)
16.12.2013 15:06 9,2 C 7,2 C 77 % 1022,5 hPa 0,0 l/m 0 min 0 min 0,0 UV-I 60 W/m 12,9 km/h (3 Bft)
16.12.2013 15:08 9,2 C 7,2 C 77 % 1022,5 hPa 0,0 l/m 0 min 0 min 0,0 UV-I 58 W/m 15,4 km/h (3 Bft)
16.12.2013 15:10 9,1 C 7,2 C 77 % 1022,5 hPa 0,0 l/m 0 min 0 min 0,0 UV-I 58 W/m 18,0 km/h (3 Bft)
16.12.2013 15:12 9,1 C 7,2 C 77 % 1022,4 hPa 0,0 l/m 0 min 0 min 0,0 UV-I 58 W/m 12,9 km/h (3 Bft)
16.12.2013 15:14 9,0 C 7,2 C 77 % 1022,4 hPa 0,0 l/m 0 min 0 min 0,0 UV-I 54 W/m 12,9 km/h (3 Bft)
16.12.2013 15:16 9,0 C 7,2 C 77 % 1022,4 hPa 0,0 l/m 0 min 0 min 0,0 UV-I 54 W/m 15,4 km/h (3 Bft)
16.12.2013 15:18 8,9 C 7,2 C 77 % 1022,4 hPa 0,0 l/m 0 min 0 min 0,0 UV-I 54 W/m 12,9 km/h (3 Bft)
16.12.2013 15:20 8,9 C 7,2 C 77 % 1022,3 hPa 0,0 l/m 0 min 0 min 0,0 UV-I 54 W/m 20,6 km/h (4 Bft)
16.12.2013 15:22 8,9 C 7,2 C 77 % 1022,2 hPa 0,0 l/m 0 min 0 min 0,0 UV-I 53 W/m 18,0 km/h (3 Bft)
16.12.2013 15:24 8,9 C 7,2 C 77 % 1022,2 hPa 0,0 l/m 0 min 0 min 0,0 UV-I 53 W/m 18,0 km/h (3 Bft)
16.12.2013 15:26 8,8 C 7,2 C 77 % 1022,2 hPa 0,0 l/m 0 min 0 min 0,0 UV-I 51 W/m 18,0 km/h (3 Bft)
16.12.2013 15:28 8,8 C 7,2 C 77 % 1022,2 hPa 0,0 l/m 0 min 0 min 0,0 UV-I 49 W/m 15,4 km/h (3 Bft)
16.12.2013 15:30 8,8 C 6,7 C 77 % 1022,2 hPa 0,0 l/m 0 min 0 min 0,0 UV-I 49 W/m 20,6 km/h (4 Bft)
16.12.2013 15:32 8,8 C 6,7 C 77 % 1022,2 hPa 0,0 l/m 0 min 0 min 0,0 UV-I 46 W/m 10,3 km/h (2 Bft)
16.12.2013 15:34 8,7 C 6,7 C 77 % 1022,3 hPa 0,0 l/m 0 min 0 min 0,0 UV-I 44 W/m 12,9 km/h (3 Bft)
16.12.2013 15:36 8,7 C 6,7 C 77 % 1022,2 hPa 0,0 l/m 0 min 0 min 0,0 UV-I 42 W/m 10,3 km/h (2 Bft)
16.12.2013 15:38 8,7 C 6,7 C 77 % 1022,2 hPa 0,0 l/m 0 min 0 min 0,0 UV-I 40 W/m 15,4 km/h (3 Bft)
16.12.2013 15:40 8,7 C 6,7 C 77 % 1022,2 hPa 0,0 l/m 0 min 0 min 0,0 UV-I 39 W/m 20,6 km/h (4 Bft)
16.12.2013 15:42 8,7 C 6,7 C 77 % 1022,2 hPa 0,0 l/m 0 min 0 min 0,0 UV-I 35 W/m 15,4 km/h (3 Bft)
16.12.2013 15:44 8,7 C 6,7 C 77 % 1022,3 hPa 0,0 l/m 0 min 0 min 0,0 UV-I 35 W/m 12,9 km/h (3 Bft)
16.12.2013 15:46 8,7 C 6,7 C 77 % 1022,2 hPa 0,0 l/m 0 min 0 min 0,0 UV-I 32 W/m 15,4 km/h (3 Bft)
16.12.2013 15:48 8,6 C 6,7 C 77 % 1022,3 hPa 0,0 l/m 0 min 0 min 0,0 UV-I 30 W/m 15,4 km/h (3 Bft)
16.12.2013 15:50 8,6 C 6,7 C 77 % 1022,4 hPa 0,0 l/m 0 min 0 min 0,0 UV-I 28 W/m 15,4 km/h (3 Bft)
16.12.2013 15:52 8,6 C 6,7 C 77 % 1022,3 hPa 0,0 l/m 0 min 0 min 0,0 UV-I 26 W/m 20,6 km/h (4 Bft)
16.12.2013 15:54 8,5 C 6,7 C 77 % 1022,2 hPa 0,0 l/m 0 min 0 min 0,0 UV-I 25 W/m 18,0 km/h (3 Bft)
16.12.2013 15:56 8,5 C 6,1 C 77 % 1022,2 hPa 0,0 l/m 0 min 0 min 0,0 UV-I 25 W/m 18,0 km/h (3 Bft)
16.12.2013 15:58 8,4 C 6,1 C 77 % 1022,2 hPa 0,0 l/m 0 min 0 min 0,0 UV-I 23 W/m 18,0 km/h (3 Bft)
16.12.2013 16:00 8,4 C 6,1 C 77 % 1022,2 hPa 0,0 l/m 0 min 0 min 0,0 UV-I 21 W/m 12,9 km/h (3 Bft)
16.12.2013 16:02 8,4 C 6,1 C 77 % 1022,2 hPa 0,0 l/m 0 min 0 min 0,0 UV-I 19 W/m 12,9 km/h (3 Bft)
16.12.2013 16:06 8,3 C 6,1 C 77 % 1022,2 hPa 0,0 l/m 0 min 0 min 0,0 UV-I 16 W/m 12,9 km/h (3 Bft)
16.12.2013 16:08 8,2 C 6,1 C 77 % 1022,2 hPa 0,0 l/m 0 min 0 min 0,0 UV-I 14 W/m 28,3 km/h (4 Bft)
16.12.2013 16:10 8,2 C 6,1 C 77 % 1022,2 hPa 0,0 l/m 0 min 0 min 0,0 UV-I 12 W/m 10,3 km/h (2 Bft)
16.12.2013 16:12 8,2 C 6,1 C 77 % 1022,2 hPa 0,0 l/m 0 min 0 min 0,0 UV-I 11 W/m 10,3 km/h (2 Bft)
16.12.2013 16:14 8,1 C 6,1 C 77 % 1022,2 hPa 0,0 l/m 0 min 0 min 0,0 UV-I 9 W/m 12,9 km/h (3 Bft)
16.12.2013 16:16 8,1 C 5,6 C 77 % 1022,2 hPa 0,0 l/m 0 min 0 min 0,0 UV-I 9 W/m 12,9 km/h (3 Bft)
16.12.2013 16:18 8,1 C 5,6 C 77 % 1022,1 hPa 0,0 l/m 0 min 0 min 0,0 UV-I 7 W/m 18,0 km/h (3 Bft)
16.12.2013 16:20 8,1 C 5,6 C 77 % 1022,1 hPa 0,0 l/m 0 min 0 min 0,0 UV-I 7 W/m 15,4 km/h (3 Bft)
16.12.2013 16:22 8,0 C 5,6 C 77 % 1022,1 hPa 0,0 l/m 0 min 0 min 0,0 UV-I 5 W/m 15,4 km/h (3 Bft)
16.12.2013 16:24 7,9 C 5,6 C 77 % 1022,1 hPa 0,0 l/m 0 min 0 min 0,0 UV-I 5 W/m 12,9 km/h (3 Bft)
16.12.2013 16:26 7,9 C 5,6 C 77 % 1022,2 hPa 0,0 l/m 0 min 0 min 0,0 UV-I 5 W/m 7,7 km/h (2 Bft)
16.12.2013 16:28 7,9 C 5,6 C 77 % 1022,1 hPa 0,0 l/m 0 min 0 min 0,0 UV-I 5 W/m 15,4 km/h (3 Bft)
16.12.2013 16:30 7,8 C 5,6 C 77 % 1022,1 hPa 0,0 l/m 0 min 0 min 0,0 UV-I 5 W/m 10,3 km/h (2 Bft)
16.12.2013 16:32 7,8 C 5,6 C 77 % 1022,1 hPa 0,0 l/m 0 min 0 min 0,0 UV-I 0 W/m 10,3 km/h (2 Bft)
16.12.2013 16:34 7,8 C 5,6 C 77 % 1022,1 hPa 0,0 l/m 0 min 0 min 0,0 UV-I 0 W/m 7,7 km/h (2 Bft)
16.12.2013 16:36 7,7 C 5,6 C 77 % 1022,1 hPa 0,0 l/m 0 min 0 min 0,0 UV-I 0 W/m 2,6 km/h (1 Bft)
16.12.2013 16:38 7,7 C 5,6 C 77 % 1022,1 hPa 0,0 l/m 0 min 0 min 0,0 UV-I 0 W/m 12,9 km/h (3 Bft)
16.12.2013 16:40 7,7 C 5,6 C 77 % 1022,1 hPa 0,0 l/m 0 min 0 min 0,0 UV-I 0 W/m 10,3 km/h (2 Bft)
16.12.2013 16:42 7,6 C 5,6 C 77 % 1022,2 hPa 0,0 l/m 0 min 0 min 0,0 UV-I 0 W/m 12,9 km/h (3 Bft)
16.12.2013 16:44 7,6 C 5,0 C 77 % 1022,1 hPa 0,0 l/m 0 min 0 min 0,0 UV-I 0 W/m 12,9 km/h (3 Bft)
16.12.2013 16:46 7,6 C 5,0 C 77 % 1022,1 hPa 0,0 l/m 0 min 0 min 0,0 UV-I 0 W/m 12,9 km/h (3 Bft)
16.12.2013 16:48 7,6 C 5,0 C 77 % 1022,1 hPa 0,0 l/m 0 min 0 min 0,0 UV-I 0 W/m 15,4 km/h (3 Bft)
16.12.2013 16:50 7,6 C 5,0 C 77 % 1022,1 hPa 0,0 l/m 0 min 0 min 0,0 UV-I 0 W/m 10,3 km/h (2 Bft)
16.12.2013 16:52 7,6 C 5,0 C 77 % 1022,1 hPa 0,0 l/m 0 min 0 min 0,0 UV-I 0 W/m 15,4 km/h (3 Bft)
16.12.2013 16:54 7,6 C 5,0 C 77 % 1022,1 hPa 0,0 l/m 0 min 0 min 0,0 UV-I 0 W/m 18,0 km/h (3 Bft)
16.12.2013 16:56 7,5 C 5,0 C 77 % 1022,1 hPa 0,0 l/m 0 min 0 min 0,0 UV-I 0 W/m 23,2 km/h (4 Bft)
16.12.2013 16:58 7,5 C 5,6 C 77 % 1022,1 hPa 0,0 l/m 0 min 0 min 0,0 UV-I 0 W/m 15,4 km/h (3 Bft)
16.12.2013 17:00 7,5 C 5,6 C 77 % 1022,2 hPa 0,0 l/m 0 min 0 min 0,0 UV-I 0 W/m 12,9 km/h (3 Bft)
16.12.2013 17:02 7,5 C 5,6 C 77 % 1022,2 hPa 0,0 l/m 0 min 0 min 0,0 UV-I 0 W/m 18,0 km/h (3 Bft)
16.12.2013 17:06 7,5 C 5,6 C 77 % 1022,2 hPa 0,0 l/m 0 min 0 min 0,0 UV-I 0 W/m 18,0 km/h (3 Bft)
16.12.2013 17:08 7,5 C 5,6 C 77 % 1022,2 hPa 0,0 l/m 0 min 0 min 0,0 UV-I 0 W/m 15,4 km/h (3 Bft)
16.12.2013 17:10 7,4 C 5,6 C 77 % 1022,2 hPa 0,0 l/m 0 min 0 min 0,0 UV-I 0 W/m 15,4 km/h (3 Bft)
16.12.2013 17:12 7,4 C 5,0 C 77 % 1022,2 hPa 0,0 l/m 0 min 0 min 0,0 UV-I 0 W/m 23,2 km/h (4 Bft)
16.12.2013 17:14 7,4 C 5,0 C 77 % 1022,3 hPa 0,0 l/m 0 min 0 min 0,0 UV-I 0 W/m 12,9 km/h (3 Bft)
16.12.2013 17:16 7,4 C 5,0 C 77 % 1022,2 hPa 0,0 l/m 0 min 0 min 0,0 UV-I 0 W/m 20,6 km/h (4 Bft)
16.12.2013 17:18 7,3 C 5,0 C 77 % 1022,2 hPa 0,0 l/m 0 min 0 min 0,0 UV-I 0 W/m 23,2 km/h (4 Bft)
16.12.2013 17:20 7,3 C 5,0 C 77 % 1022,2 hPa 0,0 l/m 0 min 0 min 0,0 UV-I 0 W/m 18,0 km/h (3 Bft)
16.12.2013 17:22 7,3 C 5,0 C 77 % 1022,1 hPa 0,0 l/m 0 min 0 min 0,0 UV-I 0 W/m 18,0 km/h (3 Bft)
16.12.2013 17:24 7,3 C 5,0 C 78 % 1022,2 hPa 0,0 l/m 0 min 0 min 0,0 UV-I 0 W/m 12,9 km/h (3 Bft)
16.12.2013 17:26 7,2 C 5,0 C 78 % 1022,1 hPa 0,0 l/m 0 min 0 min 0,0 UV-I 0 W/m 15,4 km/h (3 Bft)
16.12.2013 17:28 7,2 C 5,0 C 78 % 1022,2 hPa 0,0 l/m 0 min 0 min 0,0 UV-I 0 W/m 15,4 km/h (3 Bft)
16.12.2013 17:30 7,2 C 5,0 C 78 % 1022,3 hPa 0,0 l/m 0 min 0 min 0,0 UV-I 0 W/m 10,3 km/h (2 Bft)
16.12.2013 17:32 7,1 C 5,0 C 78 % 1022,4 hPa 0,0 l/m 0 min 0 min 0,0 UV-I 0 W/m 12,9 km/h (3 Bft)
16.12.2013 17:34 7,1 C 5,0 C 78 % 1022,4 hPa 0,0 l/m 0 min 0 min 0,0 UV-I 0 W/m 20,6 km/h (4 Bft)
16.12.2013 17:36 7,1 C 5,0 C 78 % 1022,4 hPa 0,0 l/m 0 min 0 min 0,0 UV-I 0 W/m 10,3 km/h (2 Bft)
16.12.2013 17:38 7,1 C 5,0 C 78 % 1022,4 hPa 0,0 l/m 0 min 0 min 0,0 UV-I 0 W/m 20,6 km/h (4 Bft)
16.12.2013 17:40 7,0 C 5,0 C 78 % 1022,4 hPa 0,0 l/m 0 min 0 min 0,0 UV-I 0 W/m 12,9 km/h (3 Bft)
16.12.2013 17:42 7,0 C 5,0 C 78 % 1022,5 hPa 0,0 l/m 0 min 0 min 0,0 UV-I 0 W/m 15,4 km/h (3 Bft)
16.12.2013 17:44 6,9 C 4,4 C 78 % 1022,5 hPa 0,0 l/m 0 min 0 min 0,0 UV-I 0 W/m 10,3 km/h (2 Bft)
16.12.2013 17:46 6,9 C 4,4 C 78 % 1022,6 hPa 0,0 l/m 0 min 0 min 0,0 UV-I 0 W/m 12,9 km/h (3 Bft)
16.12.2013 17:48 6,9 C 4,4 C 78 % 1022,6 hPa 0,0 l/m 0 min 0 min 0,0 UV-I 0 W/m 7,7 km/h (2 Bft)
16.12.2013 17:50 6,9 C 4,4 C 78 % 1022,6 hPa 0,0 l/m 0 min 0 min 0,0 UV-I 0 W/m 12,9 km/h (3 Bft)
16.12.2013 17:52 6,9 C 4,4 C 78 % 1022,7 hPa 0,0 l/m 0 min 0 min 0,0 UV-I 0 W/m 5,1 km/h (1 Bft)
16.12.2013 17:54 6,8 C 4,4 C 78 % 1022,6 hPa 0,0 l/m 0 min 0 min 0,0 UV-I 0 W/m 10,3 km/h (2 Bft)
16.12.2013 17:56 6,8 C 4,4 C 78 % 1022,6 hPa 0,0 l/m 0 min 0 min 0,0 UV-I 0 W/m 7,7 km/h (2 Bft)
16.12.2013 17:58 6,8 C 4,4 C 78 % 1022,7 hPa 0,0 l/m 0 min 0 min 0,0 UV-I 0 W/m 15,4 km/h (3 Bft)
16.12.2013 18:00 6,7 C 4,4 C 78 % 1022,8 hPa 0,0 l/m 0 min 0 min 0,0 UV-I 0 W/m 12,9 km/h (3 Bft)
16.12.2013 18:02 6,7 C 4,4 C 79 % 1022,8 hPa 0,0 l/m 0 min 0 min 0,0 UV-I 0 W/m 7,7 km/h (2 Bft)
16.12.2013 18:04 6,7 C 4,4 C 79 % 1022,8 hPa 0,0 l/m 0 min 0 min 0,0 UV-I 0 W/m 10,3 km/h (2 Bft)
16.12.2013 18:06 6,6 C 4,4 C 79 % 1022,8 hPa 0,0 l/m 0 min 0 min 0,0 UV-I 0 W/m 10,3 km/h (2 Bft)
16.12.2013 18:08 6,6 C 4,4 C 79 % 1022,8 hPa 0,0 l/m 0 min 0 min 0,0 UV-I 0 W/m 12,9 km/h (3 Bft)
16.12.2013 18:10 6,6 C 4,4 C 79 % 1022,8 hPa 0,0 l/m 0 min 0 min 0,0 UV-I 0 W/m 7,7 km/h (2 Bft)
16.12.2013 18:12 6,6 C 4,4 C 79 % 1022,8 hPa 0,0 l/m 0 min 0 min 0,0 UV-I 0 W/m 7,7 km/h (2 Bft)
16.12.2013 18:14 6,6 C 4,4 C 79 % 1022,9 hPa 0,0 l/m 0 min 0 min 0,0 UV-I 0 W/m 10,3 km/h (2 Bft)
16.12.2013 18:16 6,6 C 4,4 C 79 % 1022,9 hPa 0,0 l/m 0 min 0 min 0,0 UV-I 0 W/m 10,3 km/h (2 Bft)
16.12.2013 18:18 6,5 C 3,9 C 79 % 1022,9 hPa 0,0 l/m 0 min 0 min 0,0 UV-I 0 W/m 7,7 km/h (2 Bft)
16.12.2013 18:20 6,5 C 3,9 C 79 % 1022,9 hPa 0,0 l/m 0 min 0 min 0,0 UV-I 0 W/m 7,7 km/h (2 Bft)
16.12.2013 18:22 6,5 C 3,9 C 79 % 1023,0 hPa 0,0 l/m 0 min 0 min 0,0 UV-I 0 W/m 7,7 km/h (2 Bft)
16.12.2013 18:24 6,5 C 3,9 C 79 % 1023,0 hPa 0,0 l/m 0 min 0 min 0,0 UV-I 0 W/m 0,0 km/h (0 Bft)
16.12.2013 18:26 6,5 C 4,4 C 79 % 1023,0 hPa 0,0 l/m 0 min 0 min 0,0 UV-I 0 W/m 7,7 km/h (2 Bft)
16.12.2013 18:28 6,5 C 4,4 C 79 % 1023,0 hPa 0,0 l/m 0 min 0 min 0,0 UV-I 0 W/m 0,0 km/h (0 Bft)
16.12.2013 18:30 6,5 C 3,9 C 79 % 1023,0 hPa 0,0 l/m 0 min 0 min 0,0 UV-I 0 W/m 7,7 km/h (2 Bft)
16.12.2013 18:32 6,5 C 3,9 C 79 % 1022,9 hPa 0,0 l/m 0 min 0 min 0,0 UV-I 0 W/m 5,1 km/h (1 Bft)
16.12.2013 18:34 6,5 C 3,9 C 79 % 1023,0 hPa 0,0 l/m 0 min 0 min 0,0 UV-I 0 W/m 0,0 km/h (0 Bft)
16.12.2013 18:36 6,4 C 3,9 C 79 % 1023,0 hPa 0,0 l/m 0 min 0 min 0,0 UV-I 0 W/m 0,0 km/h (0 Bft)
16.12.2013 18:38 6,4 C 3,9 C 79 % 1023,0 hPa 0,0 l/m 0 min 0 min 0,0 UV-I 0 W/m 2,6 km/h (1 Bft)
16.12.2013 18:40 6,4 C 3,9 C 79 % 1023,0 hPa 0,0 l/m 0 min 0 min 0,0 UV-I 0 W/m 7,7 km/h (2 Bft)
16.12.2013 18:42 6,4 C 3,9 C 78 % 1023,0 hPa 0,0 l/m 0 min 0 min 0,0 UV-I 0 W/m 0,0 km/h (0 Bft)
16.12.2013 18:44 6,4 C 3,9 C 78 % 1023,1 hPa 0,0 l/m 0 min 0 min 0,0 UV-I 0 W/m 0,0 km/h (0 Bft)
16.12.2013 18:46 6,4 C 3,9 C 78 % 1023,0 hPa 0,0 l/m 0 min 0 min 0,0 UV-I 0 W/m 2,6 km/h (1 Bft)
16.12.2013 18:48 6,4 C 3,9 C 78 % 1023,1 hPa 0,0 l/m 0 min 0 min 0,0 UV-I 0 W/m 0,0 km/h (0 Bft)
16.12.2013 18:50 6,4 C 3,9 C 78 % 1023,1 hPa 0,0 l/m 0 min 0 min 0,0 UV-I 0 W/m 0,0 km/h (0 Bft)
16.12.2013 18:52 6,4 C 3,9 C 78 % 1023,1 hPa 0,0 l/m 0 min 0 min 0,0 UV-I 0 W/m 0,0 km/h (0 Bft)
16.12.2013 18:54 6,4 C 3,9 C 78 % 1023,1 hPa 0,0 l/m 0 min 0 min 0,0 UV-I 0 W/m 0,0 km/h (0 Bft)
16.12.2013 18:56 6,4 C 3,9 C 78 % 1023,2 hPa 0,0 l/m 0 min 0 min 0,0 UV-I 0 W/m 0,0 km/h (0 Bft)
16.12.2013 18:58 6,4 C 3,9 C 78 % 1023,2 hPa 0,0 l/m 0 min 0 min 0,0 UV-I 0 W/m 2,6 km/h (1 Bft)
16.12.2013 19:00 6,4 C 3,9 C 78 % 1023,1 hPa 0,0 l/m 0 min 0 min 0,0 UV-I 0 W/m 5,1 km/h (1 Bft)
16.12.2013 19:02 6,4 C 3,9 C 78 % 1023,2 hPa 0,0 l/m 0 min 0 min 0,0 UV-I 0 W/m 5,1 km/h (1 Bft)
16.12.2013 19:04 6,4 C 3,9 C 78 % 1023,2 hPa 0,0 l/m 0 min 0 min 0,0 UV-I 0 W/m 5,1 km/h (1 Bft)
16.12.2013 19:06 6,4 C 3,9 C 78 % 1023,3 hPa 0,0 l/m 0 min 0 min 0,0 UV-I 0 W/m 0,0 km/h (0 Bft)
16.12.2013 19:08 6,4 C 3,9 C 77 % 1023,3 hPa 0,0 l/m 0 min 0 min 0,0 UV-I 0 W/m 10,3 km/h (2 Bft)
16.12.2013 19:10 6,4 C 3,9 C 77 % 1023,3 hPa 0,0 l/m 0 min 0 min 0,0 UV-I 0 W/m 0,0 km/h (0 Bft)
16.12.2013 19:12 6,4 C 3,9 C 77 % 1023,3 hPa 0,0 l/m 0 min 0 min 0,0 UV-I 0 W/m 0,0 km/h (0 Bft)
16.12.2013 19:14 6,4 C 3,9 C 77 % 1023,3 hPa 0,0 l/m 0 min 0 min 0,0 UV-I 0 W/m 0,0 km/h (0 Bft)
16.12.2013 19:16 6,4 C 3,3 C 77 % 1023,3 hPa 0,0 l/m 0 min 0 min 0,0 UV-I 0 W/m 5,1 km/h (1 Bft)
16.12.2013 19:18 6,4 C 3,3 C 77 % 1023,3 hPa 0,0 l/m 0 min 0 min 0,0 UV-I 0 W/m 0,0 km/h (0 Bft)
16.12.2013 19:20 6,4 C 3,3 C 77 % 1023,3 hPa 0,0 l/m 0 min 0 min 0,0 UV-I 0 W/m 0,0 km/h (0 Bft)
16.12.2013 19:22 6,4 C 3,3 C 77 % 1023,3 hPa 0,0 l/m 0 min 0 min 0,0 UV-I 0 W/m 0,0 km/h (0 Bft)
16.12.2013 19:24 6,4 C 3,3 C 77 % 1023,2 hPa 0,0 l/m 0 min 0 min 0,0 UV-I 0 W/m 0,0 km/h (0 Bft)
16.12.2013 19:26 6,4 C 3,3 C 77 % 1023,2 hPa 0,0 l/m 0 min 0 min 0,0 UV-I 0 W/m 0,0 km/h (0 Bft)
16.12.2013 19:28 6,4 C 3,9 C 77 % 1023,2 hPa 0,0 l/m 0 min 0 min 0,0 UV-I 0 W/m 7,7 km/h (2 Bft)
16.12.2013 19:30 6,5 C 3,9 C 76 % 1023,2 hPa 0,0 l/m 0 min 0 min 0,0 UV-I 0 W/m 2,6 km/h (1 Bft)
16.12.2013 19:32 6,5 C 3,9 C 76 % 1023,3 hPa 0,0 l/m 0 min 0 min 0,0 UV-I 0 W/m 5,1 km/h (1 Bft)
16.12.2013 19:34 6,5 C 3,9 C 76 % 1023,3 hPa 0,0 l/m 0 min 0 min 0,0 UV-I 0 W/m 5,1 km/h (1 Bft)
16.12.2013 19:36 6,6 C 3,9 C 76 % 1023,3 hPa 0,0 l/m 0 min 0 min 0,0 UV-I 0 W/m 7,7 km/h (2 Bft)
16.12.2013 19:38 6,6 C 3,9 C 76 % 1023,2 hPa 0,0 l/m 0 min 0 min 0,0 UV-I 0 W/m 0,0 km/h (0 Bft)
16.12.2013 19:40 6,6 C 4,4 C 76 % 1023,2 hPa 0,0 l/m 0 min 0 min 0,0 UV-I 0 W/m 5,1 km/h (1 Bft)
16.12.2013 19:42 6,7 C 4,4 C 76 % 1023,3 hPa 0,0 l/m 0 min 0 min 0,0 UV-I 0 W/m 5,1 km/h (1 Bft)
16.12.2013 19:44 6,7 C 4,4 C 76 % 1023,4 hPa 0,0 l/m 0 min 0 min 0,0 UV-I 0 W/m 0,0 km/h (0 Bft)
16.12.2013 19:46 6,7 C 4,4 C 79 % 1023,4 hPa 0,0 l/m 0 min 0 min 0,0 UV-I 0 W/m 10,3 km/h (2 Bft)
16.12.2013 19:48 6,7 C 4,4 C 76 % 1023,3 hPa 0,0 l/m 0 min 0 min 0,0 UV-I 0 W/m 7,7 km/h (2 Bft)
16.12.2013 19:50 6,7 C 4,4 C 76 % 1023,4 hPa 0,0 l/m 0 min 0 min 0,0 UV-I 0 W/m 5,1 km/h (1 Bft)
16.12.2013 19:52 6,7 C 4,4 C 76 % 1023,3 hPa 0,0 l/m 0 min 0 min 0,0 UV-I 0 W/m 7,7 km/h (2 Bft)
16.12.2013 19:54 6,7 C 4,4 C 79 % 1023,4 hPa 0,0 l/m 0 min 0 min 0,0 UV-I 0 W/m 10,3 km/h (2 Bft)
16.12.2013 19:56 6,7 C 4,4 C 79 % 1023,5 hPa 0,0 l/m 0 min 0 min 0,0 UV-I 0 W/m 7,7 km/h (2 Bft)
16.12.2013 19:58 6,7 C 4,4 C 76 % 1023,5 hPa 0,0 l/m 0 min 0 min 0,0 UV-I 0 W/m 5,1 km/h (1 Bft)
16.12.2013 20:00 6,6 C 4,4 C 76 % 1023,7 hPa 0,0 l/m 0 min 0 min 0,0 UV-I 0 W/m 5,1 km/h (1 Bft)
16.12.2013 20:02 6,6 C 4,4 C 76 % 1023,9 hPa 0,0 l/m 0 min 0 min 0,0 UV-I 0 W/m 0,0 km/h (0 Bft)
16.12.2013 20:04 6,6 C 4,4 C 76 % 1023,9 hPa 0,0 l/m 0 min 0 min 0,0 UV-I 0 W/m 10,3 km/h (2 Bft)
16.12.2013 20:06 6,6 C 4,4 C 76 % 1023,9 hPa 0,0 l/m 0 min 0 min 0,0 UV-I 0 W/m 2,6 km/h (1 Bft)
16.12.2013 20:08 6,5 C 4,4 C 76 % 1024,0 hPa 0,0 l/m 0 min 0 min 0,0 UV-I 0 W/m 7,7 km/h (2 Bft)
16.12.2013 20:10 6,5 C 4,4 C 77 % 1024,1 hPa 0,0 l/m 0 min 0 min 0,0 UV-I 0 W/m 0,0 km/h (0 Bft)
16.12.2013 20:12 6,5 C 4,4 C 77 % 1024,0 hPa 0,0 l/m 0 min 0 min 0,0 UV-I 0 W/m 0,0 km/h (0 Bft)
16.12.2013 20:14 6,4 C 3,9 C 77 % 1024,1 hPa 0,0 l/m 0 min 0 min 0,0 UV-I 0 W/m 0,0 km/h (0 Bft)
16.12.2013 20:16 6,4 C 3,9 C 77 % 1024,1 hPa 0,0 l/m 0 min 0 min 0,0 UV-I 0 W/m 2,6 km/h (1 Bft)
16.12.2013 20:18 6,4 C 4,4 C 77 % 1024,1 hPa 0,0 l/m 0 min 0 min 0,0 UV-I 0 W/m 2,6 km/h (1 Bft)
16.12.2013 20:20 6,4 C 4,4 C 77 % 1024,0 hPa 0,0 l/m 0 min 0 min 0,0 UV-I 0 W/m 7,7 km/h (2 Bft)
16.12.2013 20:22 6,4 C 4,4 C 77 % 1024,0 hPa 0,0 l/m 0 min 0 min 0,0 UV-I 0 W/m 2,6 km/h (1 Bft)
16.12.2013 20:24 6,4 C 4,4 C 77 % 1024,0 hPa 0,0 l/m 0 min 0 min 0,0 UV-I 0 W/m 0,0 km/h (0 Bft)
16.12.2013 20:26 6,4 C 4,4 C 77 % 1024,0 hPa 0,0 l/m 0 min 0 min 0,0 UV-I 0 W/m 0,0 km/h (0 Bft)
16.12.2013 20:28 6,4 C 4,4 C 77 % 1024,1 hPa 0,0 l/m 0 min 0 min 0,0 UV-I 0 W/m 2,6 km/h (1 Bft)
16.12.2013 20:30 6,3 C 4,4 C 77 % 1024,1 hPa 0,0 l/m 0 min 0 min 0,0 UV-I 0 W/m 7,7 km/h (2 Bft)
16.12.2013 20:32 6,3 C 4,4 C 77 % 1024,1 hPa 0,0 l/m 0 min 0 min 0,0 UV-I 0 W/m 0,0 km/h (0 Bft)
16.12.2013 20:34 6,3 C 4,4 C 78 % 1024,0 hPa 0,0 l/m 0 min 0 min 0,0 UV-I 0 W/m 5,1 km/h (1 Bft)
16.12.2013 20:36 6,3 C 4,4 C 78 % 1024,0 hPa 0,0 l/m 0 min 0 min 0,0 UV-I 0 W/m 0,0 km/h (0 Bft)
16.12.2013 20:38 6,3 C 4,4 C 78 % 1024,0 hPa 0,0 l/m 0 min 0 min 0,0 UV-I 0 W/m 0,0 km/h (0 Bft)
16.12.2013 20:40 6,3 C 4,4 C 78 % 1023,9 hPa 0,0 l/m 0 min 0 min 0,0 UV-I 0 W/m 10,3 km/h (2 Bft)
16.12.2013 20:42 6,3 C 4,4 C 78 % 1024,0 hPa 0,0 l/m 0 min 0 min 0,0 UV-I 0 W/m 0,0 km/h (0 Bft)
16.12.2013 20:44 6,3 C 4,4 C 78 % 1024,0 hPa 0,0 l/m 0 min 0 min 0,0 UV-I 0 W/m 0,0 km/h (0 Bft)
16.12.2013 20:46 6,3 C 4,4 C 78 % 1023,9 hPa 0,0 l/m 0 min 0 min 0,0 UV-I 0 W/m 7,7 km/h (2 Bft)
16.12.2013 20:48 6,3 C 4,4 C 78 % 1023,9 hPa 0,0 l/m 0 min 0 min 0,0 UV-I 0 W/m 7,7 km/h (2 Bft)
16.12.2013 20:50 6,3 C 4,4 C 78 % 1023,8 hPa 0,0 l/m 0 min 0 min 0,0 UV-I 0 W/m 5,1 km/h (1 Bft)
16.12.2013 20:52 6,3 C 5,0 C 78 % 1023,8 hPa 0,0 l/m 0 min 0 min 0,0 UV-I 0 W/m 7,7 km/h (2 Bft)
16.12.2013 20:54 6,3 C 4,4 C 78 % 1023,8 hPa 0,0 l/m 0 min 0 min 0,0 UV-I 0 W/m 7,7 km/h (2 Bft)
16.12.2013 20:56 6,3 C 4,4 C 78 % 1023,8 hPa 0,0 l/m 0 min 0 min 0,0 UV-I 0 W/m 7,7 km/h (2 Bft)
16.12.2013 20:58 6,3 C 4,4 C 78 % 1023,8 hPa 0,0 l/m 0 min 0 min 0,0 UV-I 0 W/m 5,1 km/h (1 Bft)
16.12.2013 21:00 6,3 C 4,4 C 78 % 1023,8 hPa 0,0 l/m 0 min 0 min 0,0 UV-I 0 W/m 7,7 km/h (2 Bft)
16.12.2013 21:02 6,3 C 4,4 C 78 % 1023,8 hPa 0,0 l/m 0 min 0 min 0,0 UV-I 0 W/m 15,4 km/h (3 Bft)
16.12.2013 21:04 6,3 C 4,4 C 78 % 1023,8 hPa 0,0 l/m 0 min 0 min 0,0 UV-I 0 W/m 12,9 km/h (3 Bft)
16.12.2013 21:06 6,3 C 4,4 C 78 % 1023,7 hPa 0,0 l/m 0 min 0 min 0,0 UV-I 0 W/m 18,0 km/h (3 Bft)
16.12.2013 21:08 6,3 C 4,4 C 78 % 1023,7 hPa 0,0 l/m 0 min 0 min 0,0 UV-I 0 W/m 15,4 km/h (3 Bft)
16.12.2013 21:10 6,3 C 4,4 C 78 % 1023,6 hPa 0,0 l/m 0 min 0 min 0,0 UV-I 0 W/m 7,7 km/h (2 Bft)
16.12.2013 21:12 6,3 C 4,4 C 78 % 1023,7 hPa 0,0 l/m 0 min 0 min 0,0 UV-I 0 W/m 12,9 km/h (3 Bft)
16.12.2013 21:14 6,3 C 4,4 C 78 % 1023,7 hPa 0,0 l/m 0 min 0 min 0,0 UV-I 0 W/m 7,7 km/h (2 Bft)
16.12.2013 21:16 6,3 C 4,4 C 78 % 1023,7 hPa 0,0 l/m 0 min 0 min 0,0 UV-I 0 W/m 15,4 km/h (3 Bft)
16.12.2013 21:18 6,3 C 4,4 C 78 % 1023,7 hPa 0,0 l/m 0 min 0 min 0,0 UV-I 0 W/m 10,3 km/h (2 Bft)
16.12.2013 21:20 6,3 C 4,4 C 78 % 1023,7 hPa 0,0 l/m 0 min 0 min 0,0 UV-I 0 W/m 10,3 km/h (2 Bft)
16.12.2013 21:22 6,3 C 4,4 C 79 % 1023,7 hPa 0,0 l/m 0 min 0 min 0,0 UV-I 0 W/m 12,9 km/h (3 Bft)
16.12.2013 21:24 6,3 C 5,0 C 79 % 1023,7 hPa 0,0 l/m 0 min 0 min 0,0 UV-I 0 W/m 12,9 km/h (3 Bft)
16.12.2013 21:26 6,3 C 5,0 C 79 % 1023,6 hPa 0,0 l/m 0 min 0 min 0,0 UV-I 0 W/m 12,9 km/h (3 Bft)
16.12.2013 21:28 6,3 C 5,0 C 79 % 1023,7 hPa 0,0 l/m 0 min 0 min 0,0 UV-I 0 W/m 15,4 km/h (3 Bft)
16.12.2013 21:30 6,3 C 5,0 C 79 % 1023,6 hPa 0,0 l/m 0 min 0 min 0,0 UV-I 0 W/m 10,3 km/h (2 Bft)
16.12.2013 21:32 6,3 C 5,0 C 79 % 1023,6 hPa 0,0 l/m 0 min 0 min 0,0 UV-I 0 W/m 15,4 km/h (3 Bft)
16.12.2013 21:34 6,3 C 5,0 C 79 % 1023,5 hPa 0,0 l/m 0 min 0 min 0,0 UV-I 0 W/m 12,9 km/h (3 Bft)
16.12.2013 21:36 6,3 C 5,0 C 79 % 1023,6 hPa 0,0 l/m 0 min 0 min 0,0 UV-I 0 W/m 10,3 km/h (2 Bft)
16.12.2013 21:38 6,3 C 5,0 C 79 % 1023,5 hPa 0,0 l/m 0 min 0 min 0,0 UV-I 0 W/m 12,9 km/h (3 Bft)
16.12.2013 21:40 6,3 C 5,0 C 79 % 1023,5 hPa 0,0 l/m 0 min 0 min 0,0 UV-I 0 W/m 7,7 km/h (2 Bft)
16.12.2013 21:42 6,4 C 5,0 C 79 % 1023,5 hPa 0,0 l/m 0 min 0 min 0,0 UV-I 0 W/m 12,9 km/h (3 Bft)
16.12.2013 21:44 6,4 C 5,0 C 79 % 1023,5 hPa 0,0 l/m 0 min 0 min 0,0 UV-I 0 W/m 7,7 km/h (2 Bft)
16.12.2013 21:46 6,4 C 5,0 C 79 % 1023,5 hPa 0,0 l/m 0 min 0 min 0,0 UV-I 0 W/m 10,3 km/h (2 Bft)
16.12.2013 21:48 6,4 C 5,0 C 79 % 1023,5 hPa 0,0 l/m 0 min 0 min 0,0 UV-I 0 W/m 12,9 km/h (3 Bft)
16.12.2013 21:50 6,4 C 5,0 C 79 % 1023,5 hPa 0,0 l/m 0 min 0 min 0,0 UV-I 0 W/m 15,4 km/h (3 Bft)
16.12.2013 21:52 6,4 C 5,0 C 79 % 1023,5 hPa 0,0 l/m 0 min 0 min 0,0 UV-I 0 W/m 7,7 km/h (2 Bft)
16.12.2013 21:54 6,4 C 5,0 C 79 % 1023,4 hPa 0,0 l/m 0 min 0 min 0,0 UV-I 0 W/m 7,7 km/h (2 Bft)
16.12.2013 21:56 6,4 C 4,4 C 79 % 1023,4 hPa 0,0 l/m 0 min 0 min 0,0 UV-I 0 W/m 10,3 km/h (2 Bft)
16.12.2013 21:58 6,4 C 4,4 C 79 % 1023,4 hPa 0,0 l/m 0 min 0 min 0,0 UV-I 0 W/m 15,4 km/h (3 Bft)
16.12.2013 22:00 6,4 C 4,4 C 79 % 1023,4 hPa 0,0 l/m 0 min 0 min 0,0 UV-I 0 W/m 10,3 km/h (2 Bft)
16.12.2013 22:02 6,4 C 4,4 C 79 % 1023,3 hPa 0,0 l/m 0 min 0 min 0,0 UV-I 0 W/m 10,3 km/h (2 Bft)
16.12.2013 22:04 6,4 C 4,4 C 79 % 1023,3 hPa 0,0 l/m 0 min 0 min 0,0 UV-I 0 W/m 12,9 km/h (3 Bft)
16.12.2013 22:06 6,4 C 4,4 C 79 % 1023,3 hPa 0,0 l/m 0 min 0 min 0,0 UV-I 0 W/m 12,9 km/h (3 Bft)
16.12.2013 22:08 6,4 C 4,4 C 79 % 1023,2 hPa 0,0 l/m 0 min 0 min 0,0 UV-I 0 W/m 12,9 km/h (3 Bft)
16.12.2013 22:10 6,4 C 4,4 C 79 % 1023,2 hPa 0,0 l/m 0 min 0 min 0,0 UV-I 0 W/m 2,6 km/h (1 Bft)
16.12.2013 22:12 6,4 C 4,4 C 80 % 1023,2 hPa 0,0 l/m 0 min 0 min 0,0 UV-I 0 W/m 12,9 km/h (3 Bft)
16.12.2013 22:14 6,4 C 4,4 C 80 % 1023,2 hPa 0,0 l/m 0 min 0 min 0,0 UV-I 0 W/m 5,1 km/h (1 Bft)
16.12.2013 22:16 6,3 C 4,4 C 80 % 1023,2 hPa 0,0 l/m 0 min 0 min 0,0 UV-I 0 W/m 12,9 km/h (3 Bft)
16.12.2013 22:18 6,3 C 4,4 C 80 % 1023,2 hPa 0,0 l/m 0 min 0 min 0,0 UV-I 0 W/m 7,7 km/h (2 Bft)
16.12.2013 22:20 6,3 C 4,4 C 80 % 1023,2 hPa 0,0 l/m 0 min 0 min 0,0 UV-I 0 W/m 10,3 km/h (2 Bft)
16.12.2013 22:22 6,3 C 4,4 C 80 % 1023,2 hPa 0,0 l/m 0 min 0 min 0,0 UV-I 0 W/m 15,4 km/h (3 Bft)
16.12.2013 22:24 6,3 C 4,4 C 80 % 1023,2 hPa 0,0 l/m 0 min 0 min 0,0 UV-I 0 W/m 10,3 km/h (2 Bft)
16.12.2013 22:26 6,3 C 4,4 C 80 % 1023,1 hPa 0,0 l/m 0 min 0 min 0,0 UV-I 0 W/m 5,1 km/h (1 Bft)
16.12.2013 22:28 6,3 C 4,4 C 80 % 1023,1 hPa 0,0 l/m 0 min 0 min 0,0 UV-I 0 W/m 5,1 km/h (1 Bft)
16.12.2013 22:30 6,3 C 4,4 C 80 % 1023,1 hPa 0,0 l/m 0 min 0 min 0,0 UV-I 0 W/m 5,1 km/h (1 Bft)
16.12.2013 22:32 6,2 C 4,4 C 80 % 1023,2 hPa 0,0 l/m 0 min 0 min 0,0 UV-I 0 W/m 10,3 km/h (2 Bft)
16.12.2013 22:34 6,2 C 4,4 C 80 % 1023,2 hPa 0,0 l/m 0 min 0 min 0,0 UV-I 0 W/m 0,0 km/h (0 Bft)
16.12.2013 22:36 6,2 C 3,9 C 80 % 1023,2 hPa 0,0 l/m 0 min 0 min 0,0 UV-I 0 W/m 2,6 km/h (1 Bft)
16.12.2013 22:38 6,2 C 3,9 C 81 % 1023,2 hPa 0,0 l/m 0 min 0 min 0,0 UV-I 0 W/m 0,0 km/h (0 Bft)
16.12.2013 22:40 6,2 C 4,4 C 81 % 1023,2 hPa 0,0 l/m 0 min 0 min 0,0 UV-I 0 W/m 7,7 km/h (2 Bft)
16.12.2013 22:42 6,2 C 4,4 C 81 % 1023,2 hPa 0,0 l/m 0 min 0 min 0,0 UV-I 0 W/m 0,0 km/h (0 Bft)
16.12.2013 22:44 6,2 C 4,4 C 81 % 1023,3 hPa 0,0 l/m 0 min 0 min 0,0 UV-I 0 W/m 0,0 km/h (0 Bft)
16.12.2013 22:46 6,2 C 4,4 C 81 % 1023,2 hPa 0,0 l/m 0 min 0 min 0,0 UV-I 0 W/m 0,0 km/h (0 Bft)
16.12.2013 22:48 6,2 C 4,4 C 81 % 1023,3 hPa 0,0 l/m 0 min 0 min 0,0 UV-I 0 W/m 5,1 km/h (1 Bft)
16.12.2013 22:50 6,2 C 4,4 C 81 % 1023,2 hPa 0,0 l/m 0 min 0 min 0,0 UV-I 0 W/m 2,6 km/h (1 Bft)
16.12.2013 22:52 6,2 C 4,4 C 81 % 1023,3 hPa 0,0 l/m 0 min 0 min 0,0 UV-I 0 W/m 7,7 km/h (2 Bft)
16.12.2013 22:54 6,2 C 4,4 C 81 % 1023,3 hPa 0,0 l/m 0 min 0 min 0,0 UV-I 0 W/m 5,1 km/h (1 Bft)
16.12.2013 22:56 6,2 C 4,4 C 81 % 1023,3 hPa 0,0 l/m 0 min 0 min 0,0 UV-I 0 W/m 0,0 km/h (0 Bft)
16.12.2013 22:58 6,2 C 4,4 C 81 % 1023,3 hPa 0,0 l/m 0 min 0 min 0,0 UV-I 0 W/m 5,1 km/h (1 Bft)
16.12.2013 23:00 6,2 C 4,4 C 81 % 1023,4 hPa 0,0 l/m 0 min 0 min 0,0 UV-I 0 W/m 5,1 km/h (1 Bft)
16.12.2013 23:02 6,2 C 4,4 C 81 % 1023,4 hPa 0,0 l/m 0 min 0 min 0,0 UV-I 0 W/m 0,0 km/h (0 Bft)
16.12.2013 23:04 6,2 C 4,4 C 81 % 1023,4 hPa 0,0 l/m 0 min 0 min 0,0 UV-I 0 W/m 2,6 km/h (1 Bft)
16.12.2013 23:06 6,2 C 4,4 C 82 % 1023,3 hPa 0,0 l/m 0 min 0 min 0,0 UV-I 0 W/m 0,0 km/h (0 Bft)
16.12.2013 23:08 6,2 C 4,4 C 81 % 1023,4 hPa 0,0 l/m 0 min 0 min 0,0 UV-I 0 W/m 7,7 km/h (2 Bft)
16.12.2013 23:10 6,3 C 5,0 C 81 % 1023,4 hPa 0,0 l/m 0 min 0 min 0,0 UV-I 0 W/m 12,9 km/h (3 Bft)
16.12.2013 23:12 6,3 C 5,0 C 82 % 1023,4 hPa 0,0 l/m 0 min 0 min 0,0 UV-I 0 W/m 7,7 km/h (2 Bft)
16.12.2013 23:14 6,3 C 5,0 C 82 % 1023,3 hPa 0,0 l/m 0 min 0 min 0,0 UV-I 0 W/m 2,6 km/h (1 Bft)
16.12.2013 23:16 6,3 C 5,0 C 81 % 1023,3 hPa 0,0 l/m 0 min 0 min 0,0 UV-I 0 W/m 10,3 km/h (2 Bft)
16.12.2013 23:18 6,3 C 5,0 C 81 % 1023,4 hPa 0,0 l/m 0 min 0 min 0,0 UV-I 0 W/m 10,3 km/h (2 Bft)
16.12.2013 23:20 6,3 C 5,0 C 81 % 1023,3 hPa 0,0 l/m 0 min 0 min 0,0 UV-I 0 W/m 12,9 km/h (3 Bft)
16.12.2013 23:22 6,3 C 5,0 C 82 % 1023,3 hPa 0,0 l/m 0 min 0 min 0,0 UV-I 0 W/m 10,3 km/h (2 Bft)
16.12.2013 23:24 6,3 C 5,0 C 82 % 1023,3 hPa 0,0 l/m 0 min 0 min 0,0 UV-I 0 W/m 7,7 km/h (2 Bft)
16.12.2013 23:26 6,4 C 5,0 C 81 % 1023,3 hPa 0,0 l/m 0 min 0 min 0,0 UV-I 0 W/m 10,3 km/h (2 Bft)
16.12.2013 23:28 6,4 C 5,0 C 81 % 1023,3 hPa 0,0 l/m 0 min 0 min 0,0 UV-I 0 W/m 10,3 km/h (2 Bft)
16.12.2013 23:30 6,4 C 5,0 C 81 % 1023,3 hPa 0,0 l/m 0 min 0 min 0,0 UV-I 0 W/m 10,3 km/h (2 Bft)
16.12.2013 23:32 6,4 C 5,0 C 81 % 1023,3 hPa 0,0 l/m 0 min 0 min 0,0 UV-I 0 W/m 5,1 km/h (1 Bft)
16.12.2013 23:34 6,4 C 5,0 C 81 % 1023,3 hPa 0,0 l/m 0 min 0 min 0,0 UV-I 0 W/m 10,3 km/h (2 Bft)
16.12.2013 23:36 6,4 C 5,0 C 81 % 1023,3 hPa 0,0 l/m 0 min 0 min 0,0 UV-I 0 W/m 7,7 km/h (2 Bft)
16.12.2013 23:38 6,4 C 5,0 C 81 % 1023,4 hPa 0,0 l/m 0 min 0 min 0,0 UV-I 0 W/m 12,9 km/h (3 Bft)
16.12.2013 23:40 6,4 C 5,0 C 81 % 1023,4 hPa 0,0 l/m 0 min 0 min 0,0 UV-I 0 W/m 10,3 km/h (2 Bft)
16.12.2013 23:42 6,4 C 5,0 C 81 % 1023,3 hPa 0,0 l/m 0 min 0 min 0,0 UV-I 0 W/m 10,3 km/h (2 Bft)
16.12.2013 23:44 6,4 C 5,0 C 81 % 1023,3 hPa 0,0 l/m 0 min 0 min 0,0 UV-I 0 W/m 12,9 km/h (3 Bft)
16.12.2013 23:46 6,5 C 5,0 C 81 % 1023,3 hPa 0,0 l/m 0 min 0 min 0,0 UV-I 0 W/m 15,4 km/h (3 Bft)
16.12.2013 23:48 6,5 C 5,0 C 81 % 1023,3 hPa 0,0 l/m 0 min 0 min 0,0 UV-I 0 W/m 15,4 km/h (3 Bft)
16.12.2013 23:50 6,5 C 5,0 C 81 % 1023,3 hPa 0,0 l/m 0 min 0 min 0,0 UV-I 0 W/m 12,9 km/h (3 Bft)
16.12.2013 23:52 6,5 C 5,0 C 81 % 1023,3 hPa 0,0 l/m 0 min 0 min 0,0 UV-I 0 W/m 10,3 km/h (2 Bft)
16.12.2013 23:54 6,5 C 5,0 C 81 % 1023,3 hPa 0,0 l/m 0 min 0 min 0,0 UV-I 0 W/m 12,9 km/h (3 Bft)
16.12.2013 23:56 6,5 C 5,0 C 81 % 1023,3 hPa 0,0 l/m 0 min 0 min 0,0 UV-I 0 W/m 15,4 km/h (3 Bft)
16.12.2013 23:58 6,5 C 5,0 C 81 % 1023,2 hPa 0,0 l/m 0 min 0 min 0,0 UV-I 0 W/m 10,3 km/h (2 Bft)
_ Min-Zeit 07:22 06:52 14:34 16:18 - - - - - 01:10
Minimum _ 2,4 C 0,6 C 76 % 1022,1 hPa - - - - - 0,0 km/h (0 Bft)
_ Max-Zeit 14:18 14:14 09:30 00:02 00:00 10:00 00:00 00:00 11:16 13:02
Maximum _ 9,7 C 8,3 C 94 % 1025,3 hPa 0,0 l/m 2 min 0 min 0,0 UV-I 207 W/m 33,5 km/h
O-SO (5 Bft)
Durchschnitt _ 5,7 C 4,0 C 83 % 1023,7 hPa #0,0 l/m #3:36 h #0 min. 0,0 UV-I 99 W/m 11,2 km/h (2 Bft)
© 2013 W. Hausmann